Time,TemperatureF,DewpointF,PressureIn,WindDirection,WindDirectionDegrees,WindSpeedMPH,WindSpeedGustMPH,Humidity,HourlyPrecipIn,Conditions,Clouds,dailyrainin,SolarRadiationWatts/m^2,SoftwareType,DateUTC
2013-01-05 00:00:00,23.6,19.8,30.32,WNW,286,8.0,9.0,85,0.00,,,0.00,0.00,VWS V14.01,2013-01-05 05:00:00,
2013-01-05 00:05:00,23.5,19.7,30.32,WNW,286,10.0,10.0,85,0.00,,,0.00,0.00,VWS V14.01,2013-01-05 05:05:00,
2013-01-05 00:10:00,23.5,19.7,30.32,WNW,283,3.0,4.0,85,0.00,,,0.00,0.00,VWS V14.01,2013-01-05 05:10:00,
2013-01-05 00:15:00,23.5,19.7,30.32,WNW,282,4.0,4.0,85,0.00,,,0.00,0.00,VWS V14.01,2013-01-05 05:15:00,
2013-01-05 00:20:00,23.3,19.5,30.32,WNW,286,6.0,6.0,85,0.00,,,0.00,0.00,VWS V14.01,2013-01-05 05:20:00,
2013-01-05 00:21:00,23.3,19.5,30.32,West,269,9.0,10.0,85,0.00,,,0.00,0.00,VWS V14.01,2013-01-05 05:21:00,
2013-01-05 00:25:00,23.3,19.5,30.32,West,277,7.0,7.0,85,0.00,,,0.00,0.00,VWS V14.01,2013-01-05 05:25:00,
2013-01-05 00:26:00,23.3,19.5,30.32,WNW,288,5.0,8.0,85,0.00,,,0.00,0.00,VWS V14.01,2013-01-05 05:26:00,
2013-01-05 00:30:00,23.1,19.3,30.32,West,265,4.0,5.0,85,0.00,,,0.00,0.00,VWS V14.01,2013-01-05 05:30:00,
2013-01-05 00:31:00,23.1,19.3,30.32,West,278,5.0,5.0,85,0.00,,,0.00,0.00,VWS V14.01,2013-01-05 05:31:00,
2013-01-05 00:35:00,23.1,19.5,30.32,WNW,296,2.0,4.0,86,0.00,,,0.00,0.00,VWS V14.01,2013-01-05 05:35:00,
2013-01-05 00:36:00,23.1,19.5,30.32,WNW,292,6.0,6.0,86,0.00,,,0.00,0.00,VWS V14.01,2013-01-05 05:36:00,
2013-01-05 00:40:00,23.1,19.5,30.32,WNW,299,5.0,6.0,86,0.00,,,0.00,0.00,VWS V14.01,2013-01-05 05:40:00,
2013-01-05 00:41:00,23.1,19.5,30.32,WNW,301,5.0,7.0,86,0.00,,,0.00,0.00,VWS V14.01,2013-01-05 05:41:00,
2013-01-05 00:45:00,23.1,19.5,30.32,West,279,2.0,5.0,86,0.00,,,0.00,0.00,VWS V14.01,2013-01-05 05:45:00,
2013-01-05 00:46:00,23.1,19.5,30.32,WNW,300,4.0,4.0,86,0.00,,,0.00,0.00,VWS V14.01,2013-01-05 05:46:00,
2013-01-05 00:50:00,23.1,19.5,30.32,WNW,287,7.0,7.0,86,0.00,,,0.00,0.00,VWS V14.01,2013-01-05 05:50:00,
2013-01-05 00:51:00,23.1,19.5,30.32,WNW,282,5.0,6.0,86,0.00,,,0.00,0.00,VWS V14.01,2013-01-05 05:51:00,
2013-01-05 00:55:00,23.1,19.5,30.32,WNW,298,4.0,4.0,86,0.00,,,0.00,0.00,VWS V14.01,2013-01-05 05:55:00,
2013-01-05 00:56:00,23.1,19.5,30.32,WNW,282,7.0,8.0,86,0.00,,,0.00,0.00,VWS V14.01,2013-01-05 05:56:00,
2013-01-05 01:00:00,23.1,19.5,30.32,WNW,288,6.0,6.0,86,0.00,,,0.00,0.00,VWS V14.01,2013-01-05 06:00:00,
2013-01-05 01:01:00,23.1,19.5,30.32,West,277,4.0,7.0,86,0.00,,,0.00,0.00,VWS V14.01,2013-01-05 06:01:00,
2013-01-05 01:05:00,23.1,19.5,30.32,WNW,288,1.0,5.0,86,0.00,,,0.00,0.00,VWS V14.01,2013-01-05 06:05:00,
2013-01-05 01:06:00,23.1,19.5,30.32,WNW,288,1.0,5.0,86,0.00,,,0.00,0.00,VWS V14.01,2013-01-05 06:06:00,
2013-01-05 01:10:00,23.1,19.5,30.32,West,281,5.0,6.0,86,0.00,,,0.00,0.00,VWS V14.01,2013-01-05 06:10:00,
2013-01-05 01:11:00,23.1,19.5,30.32,West,281,3.0,6.0,86,0.00,,,0.00,0.00,VWS V14.01,2013-01-05 06:11:00,
2013-01-05 01:15:00,23.1,19.5,30.32,West,281,1.0,4.0,86,0.00,,,0.00,0.00,VWS V14.01,2013-01-05 06:15:00,
2013-01-05 01:16:00,23.1,19.5,30.32,WNW,282,4.0,4.0,86,0.00,,,0.00,0.00,VWS V14.01,2013-01-05 06:16:00,
2013-01-05 01:21:00,23.2,19.6,30.32,WNW,296,1.0,4.0,86,0.00,,,0.00,0.00,VWS V14.01,2013-01-05 06:21:00,
2013-01-05 01:26:00,23.1,19.5,30.31,WNW,290,4.0,6.0,86,0.00,,,0.00,0.00,VWS V14.01,2013-01-05 06:26:00,
2013-01-05 01:27:00,23.1,19.5,30.32,WNW,284,4.0,4.0,86,0.00,,,0.00,0.00,VWS V14.01,2013-01-05 06:27:00,
2013-01-05 01:31:00,23.0,19.5,30.32,WNW,291,3.0,4.0,86,0.00,,,0.00,0.00,VWS V14.01,2013-01-05 06:31:00,
2013-01-05 01:32:00,23.0,19.5,30.32,WNW,291,5.0,5.0,86,0.00,,,0.00,0.00,VWS V14.01,2013-01-05 06:32:00,
2013-01-05 01:36:00,22.9,19.4,30.31,WNW,291,0.0,0.0,86,0.00,,,0.00,0.00,VWS V14.01,2013-01-05 06:36:00,
2013-01-05 01:37:00,22.9,19.4,30.32,WNW,290,4.0,4.0,86,0.00,,,0.00,0.00,VWS V14.01,2013-01-05 06:37:00,
2013-01-05 01:41:00,22.8,19.2,30.32,WNW,292,4.0,6.0,86,0.00,,,0.00,0.00,VWS V14.01,2013-01-05 06:41:00,
2013-01-05 01:42:00,22.8,19.2,30.32,WNW,292,1.0,5.0,86,0.00,,,0.00,0.00,VWS V14.01,2013-01-05 06:42:00,
2013-01-05 01:46:00,22.8,19.2,30.32,WNW,293,2.0,2.0,86,0.00,,,0.00,0.00,VWS V14.01,2013-01-05 06:46:00,
2013-01-05 01:47:00,22.8,19.2,30.32,WNW,293,1.0,2.0,86,0.00,,,0.00,0.00,VWS V14.01,2013-01-05 06:47:00,
2013-01-05 01:51:00,22.7,19.1,30.31,WNW,293,1.0,4.0,86,0.00,,,0.00,0.00,VWS V14.01,2013-01-05 06:51:00,
2013-01-05 01:52:00,22.7,19.1,30.31,WNW,293,2.0,4.0,86,0.00,,,0.00,0.00,VWS V14.01,2013-01-05 06:52:00,
2013-01-05 01:56:00,22.6,19.0,30.31,WNW,293,2.0,5.0,86,0.00,,,0.00,0.00,VWS V14.01,2013-01-05 06:56:00,
2013-01-05 01:57:00,22.6,19.0,30.31,WNW,293,0.0,1.0,86,0.00,,,0.00,0.00,VWS V14.01,2013-01-05 06:57:00,
2013-01-05 02:01:00,22.5,19.2,30.31,WNW,292,1.0,4.0,87,0.00,,,0.00,0.00,VWS V14.01,2013-01-05 07:01:00,
2013-01-05 02:02:00,22.5,19.2,30.31,WNW,292,1.0,2.0,87,0.00,,,0.00,0.00,VWS V14.01,2013-01-05 07:02:00,
2013-01-05 02:06:00,22.5,19.2,30.31,WNW,292,2.0,3.0,87,0.00,,,0.00,0.00,VWS V14.01,2013-01-05 07:06:00,
2013-01-05 02:07:00,22.5,19.2,30.31,WNW,292,0.0,2.0,87,0.00,,,0.00,0.00,VWS V14.01,2013-01-05 07:07:00,
2013-01-05 02:11:00,22.4,19.1,30.31,WNW,292,3.0,5.0,87,0.00,,,0.00,0.00,VWS V14.01,2013-01-05 07:11:00,
2013-01-05 02:12:00,22.5,19.2,30.31,WNW,292,0.0,3.0,87,0.00,,,0.00,0.00,VWS V14.01,2013-01-05 07:12:00,
2013-01-05 02:16:00,22.2,18.7,30.31,WNW,292,0.0,0.0,86,0.00,,,0.00,0.00,VWS V14.01,2013-01-05 07:16:00,
2013-01-05 02:17:00,22.2,18.7,30.31,WNW,292,0.0,1.0,86,0.00,,,0.00,0.00,VWS V14.01,2013-01-05 07:17:00,
2013-01-05 02:21:00,21.8,18.3,30.31,WNW,291,4.0,4.0,86,0.00,,,0.00,0.00,VWS V14.01,2013-01-05 07:21:00,
2013-01-05 02:22:00,21.8,18.5,30.31,WNW,291,2.0,4.0,87,0.00,,,0.00,0.00,VWS V14.01,2013-01-05 07:22:00,
2013-01-05 02:26:00,21.8,18.5,30.32,West,279,5.0,7.0,87,0.00,,,0.00,0.00,VWS V14.01,2013-01-05 07:26:00,
2013-01-05 02:27:00,21.8,18.5,30.32,West,279,6.0,7.0,87,0.00,,,0.00,0.00,VWS V14.01,2013-01-05 07:27:00,
2013-01-05 02:31:00,22.1,19.1,30.33,West,281,1.0,5.0,88,0.00,,,0.00,0.00,VWS V14.01,2013-01-05 07:31:00,
2013-01-05 02:32:00,22.1,18.8,30.33,West,281,2.0,5.0,87,0.00,,,0.00,0.00,VWS V14.01,2013-01-05 07:32:00,
2013-01-05 02:36:00,22.2,18.9,30.33,West,265,5.0,8.0,87,0.00,,,0.00,0.00,VWS V14.01,2013-01-05 07:36:00,
2013-01-05 02:37:00,22.2,18.9,30.33,West,263,8.0,8.0,87,0.00,,,0.00,0.00,VWS V14.01,2013-01-05 07:37:00,
2013-01-05 02:41:00,22.4,19.1,30.33,WNW,290,2.0,4.0,87,0.00,,,0.00,0.00,VWS V14.01,2013-01-05 07:41:00,
2013-01-05 02:42:00,22.4,19.1,30.33,WNW,302,9.0,9.0,87,0.00,,,0.00,0.00,VWS V14.01,2013-01-05 07:42:00,
2013-01-05 02:46:00,22.5,19.2,30.33,West,278,4.0,7.0,87,0.00,,,0.00,0.00,VWS V14.01,2013-01-05 07:46:00,
2013-01-05 02:47:00,22.6,19.3,30.33,West,278,6.0,7.0,87,0.00,,,0.00,0.00,VWS V14.01,2013-01-05 07:47:00,
2013-01-05 02:51:00,22.7,19.1,30.33,West,279,4.0,7.0,86,0.00,,,0.00,0.00,VWS V14.01,2013-01-05 07:51:00,
2013-01-05 02:52:00,22.6,19.0,30.33,West,281,4.0,7.0,86,0.00,,,0.00,0.00,VWS V14.01,2013-01-05 07:52:00,
2013-01-05 02:56:00,22.5,19.0,30.34,WNW,283,4.0,7.0,86,0.00,,,0.00,0.00,VWS V14.01,2013-01-05 07:56:00,
2013-01-05 02:57:00,22.5,19.0,30.34,WNW,283,5.0,7.0,86,0.00,,,0.00,0.00,VWS V14.01,2013-01-05 07:57:00,
2013-01-05 03:01:00,22.6,19.0,30.33,WNW,285,3.0,6.0,86,0.00,,,0.00,0.00,VWS V14.01,2013-01-05 08:01:00,
2013-01-05 03:02:00,22.6,19.0,30.33,WNW,291,5.0,6.0,86,0.00,,,0.00,0.00,VWS V14.01,2013-01-05 08:02:00,
2013-01-05 03:06:00,22.6,19.0,30.33,WNW,286,5.0,7.0,86,0.00,,,0.00,0.00,VWS V14.01,2013-01-05 08:06:00,
2013-01-05 03:07:00,22.6,19.0,30.33,WNW,296,6.0,9.0,86,0.00,,,0.00,0.00,VWS V14.01,2013-01-05 08:07:00,
2013-01-05 03:08:00,22.6,19.0,30.33,WNW,284,4.0,7.0,86,0.00,,,0.00,0.00,VWS V14.01,2013-01-05 08:08:00,
2013-01-05 03:12:00,22.6,19.0,30.33,West,271,6.0,6.0,86,0.00,,,0.00,0.00,VWS V14.01,2013-01-05 08:12:00,
2013-01-05 03:13:00,22.6,19.0,30.33,WNW,284,4.0,7.0,86,0.00,,,0.00,0.00,VWS V14.01,2013-01-05 08:13:00,
2013-01-05 03:17:00,22.5,19.0,30.33,West,267,2.0,6.0,86,0.00,,,0.00,0.00,VWS V14.01,2013-01-05 08:17:00,
2013-01-05 03:18:00,22.5,19.2,30.33,West,267,2.0,4.0,87,0.00,,,0.00,0.00,VWS V14.01,2013-01-05 08:18:00,
2013-01-05 03:22:00,22.5,19.2,30.34,West,279,5.0,5.0,87,0.00,,,0.00,0.00,VWS V14.01,2013-01-05 08:22:00,
2013-01-05 03:23:00,22.4,19.1,30.33,West,278,2.0,3.0,87,0.00,,,0.00,0.00,VWS V14.01,2013-01-05 08:23:00,
2013-01-05 03:27:00,22.3,19.0,30.33,WNW,283,4.0,5.0,87,0.00,,,0.00,0.00,VWS V14.01,2013-01-05 08:27:00,
2013-01-05 03:28:00,22.4,19.1,30.33,WNW,283,4.0,5.0,87,0.00,,,0.00,0.00,VWS V14.01,2013-01-05 08:28:00,
2013-01-05 03:32:00,22.3,19.0,30.34,WNW,282,4.0,5.0,87,0.00,,,0.00,0.00,VWS V14.01,2013-01-05 08:32:00,
2013-01-05 03:33:00,22.3,19.0,30.34,WNW,288,3.0,5.0,87,0.00,,,0.00,0.00,VWS V14.01,2013-01-05 08:33:00,
2013-01-05 03:37:00,22.3,19.0,30.34,WNW,286,1.0,2.0,87,0.00,,,0.00,0.00,VWS V14.01,2013-01-05 08:37:00,
2013-01-05 03:38:00,22.3,19.0,30.34,WNW,286,4.0,4.0,87,0.00,,,0.00,0.00,VWS V14.01,2013-01-05 08:38:00,
2013-01-05 03:42:00,22.3,19.3,30.34,WNW,282,1.0,6.0,88,0.00,,,0.00,0.00,VWS V14.01,2013-01-05 08:42:00,
2013-01-05 03:43:00,22.3,19.3,30.33,WNW,282,2.0,3.0,88,0.00,,,0.00,0.00,VWS V14.01,2013-01-05 08:43:00,
2013-01-05 03:47:00,22.2,19.2,30.34,WNW,283,2.0,4.0,88,0.00,,,0.00,0.00,VWS V14.01,2013-01-05 08:47:00,
2013-01-05 03:48:00,22.2,19.2,30.34,West,281,6.0,6.0,88,0.00,,,0.00,0.00,VWS V14.01,2013-01-05 08:48:00,
2013-01-05 03:52:00,22.2,19.2,30.33,West,281,5.0,5.0,88,0.00,,,0.00,0.00,VWS V14.01,2013-01-05 08:52:00,
2013-01-05 03:53:00,22.2,19.2,30.34,West,281,1.0,6.0,88,0.00,,,0.00,0.00,VWS V14.01,2013-01-05 08:53:00,
2013-01-05 03:57:00,22.1,19.1,30.34,West,281,2.0,2.0,88,0.00,,,0.00,0.00,VWS V14.01,2013-01-05 08:57:00,
2013-01-05 03:58:00,22.1,19.1,30.34,West,281,1.0,4.0,88,0.00,,,0.00,0.00,VWS V14.01,2013-01-05 08:58:00,
2013-01-05 04:02:00,22.1,19.1,30.34,West,263,6.0,6.0,88,0.00,,,0.00,0.00,VWS V14.01,2013-01-05 09:02:00,
2013-01-05 04:03:00,22.1,19.1,30.34,West,268,5.0,6.0,88,0.00,,,0.00,0.00,VWS V14.01,2013-01-05 09:03:00,
2013-01-05 04:07:00,22.1,19.1,30.34,West,271,4.0,4.0,88,0.00,,,0.00,0.00,VWS V14.01,2013-01-05 09:07:00,
2013-01-05 04:08:00,22.1,19.1,30.34,West,271,1.0,4.0,88,0.00,,,0.00,0.00,VWS V14.01,2013-01-05 09:08:00,
2013-01-05 04:12:00,22.1,19.1,30.34,West,271,2.0,2.0,88,0.00,,,0.00,0.00,VWS V14.01,2013-01-05 09:12:00,
2013-01-05 04:13:00,22.1,19.1,30.34,West,271,2.0,2.0,88,0.00,,,0.00,0.00,VWS V14.01,2013-01-05 09:13:00,
2013-01-05 04:14:00,22.0,19.0,30.34,West,271,2.0,3.0,88,0.00,,,0.00,0.00,VWS V14.01,2013-01-05 09:14:00,
2013-01-05 04:17:00,22.0,19.3,30.33,WNW,282,2.0,5.0,89,0.00,,,0.00,0.00,VWS V14.01,2013-01-05 09:17:00,
2013-01-05 04:18:00,22.0,19.3,30.34,WNW,283,1.0,2.0,89,0.00,,,0.00,0.00,VWS V14.01,2013-01-05 09:18:00,
2013-01-05 04:22:00,22.0,19.3,30.33,WNW,283,0.0,4.0,89,0.00,,,0.00,0.00,VWS V14.01,2013-01-05 09:22:00,
2013-01-05 04:23:00,22.0,19.3,30.33,WNW,282,3.0,5.0,89,0.00,,,0.00,0.00,VWS V14.01,2013-01-05 09:23:00,
2013-01-05 04:24:00,22.0,19.3,30.33,WNW,283,2.0,5.0,89,0.00,,,0.00,0.00,VWS V14.01,2013-01-05 09:24:00,
2013-01-05 04:27:00,21.9,19.2,30.33,West,281,0.0,4.0,89,0.00,,,0.00,0.00,VWS V14.01,2013-01-05 09:27:00,
2013-01-05 04:28:00,21.9,19.2,30.33,West,281,2.0,2.0,89,0.00,,,0.00,0.00,VWS V14.01,2013-01-05 09:28:00,
2013-01-05 04:29:00,21.9,19.2,30.33,West,281,0.0,1.0,89,0.00,,,0.00,0.00,VWS V14.01,2013-01-05 09:29:00,
2013-01-05 04:32:00,21.8,19.1,30.33,West,281,2.0,2.0,89,0.00,,,0.00,0.00,VWS V14.01,2013-01-05 09:32:00,
2013-01-05 04:33:00,21.8,19.1,30.33,West,281,0.0,3.0,89,0.00,,,0.00,0.00,VWS V14.01,2013-01-05 09:33:00,
2013-01-05 04:34:00,21.8,19.1,30.33,West,281,3.0,5.0,89,0.00,,,0.00,0.00,VWS V14.01,2013-01-05 09:34:00,
2013-01-05 04:37:00,21.7,19.0,30.33,West,281,4.0,4.0,89,0.00,,,0.00,0.00,VWS V14.01,2013-01-05 09:37:00,
2013-01-05 04:38:00,21.7,19.0,30.33,West,281,4.0,4.0,89,0.00,,,0.00,0.00,VWS V14.01,2013-01-05 09:38:00,
2013-01-05 04:39:00,21.7,19.0,30.33,West,281,3.0,4.0,89,0.00,,,0.00,0.00,VWS V14.01,2013-01-05 09:39:00,
2013-01-05 04:42:00,21.6,18.9,30.33,West,281,3.0,4.0,89,0.00,,,0.00,0.00,VWS V14.01,2013-01-05 09:42:00,
2013-01-05 04:43:00,21.7,19.0,30.33,West,281,1.0,4.0,89,0.00,,,0.00,0.00,VWS V14.01,2013-01-05 09:43:00,
2013-01-05 04:44:00,21.6,18.9,30.33,West,281,2.0,3.0,89,0.00,,,0.00,0.00,VWS V14.01,2013-01-05 09:44:00,
2013-01-05 04:47:00,21.6,18.9,30.33,West,281,1.0,4.0,89,0.00,,,0.00,0.00,VWS V14.01,2013-01-05 09:47:00,
2013-01-05 04:48:00,21.5,18.8,30.33,West,281,0.0,4.0,89,0.00,,,0.00,0.00,VWS V14.01,2013-01-05 09:48:00,
2013-01-05 04:49:00,21.6,18.9,30.33,West,281,1.0,2.0,89,0.00,,,0.00,0.00,VWS V14.01,2013-01-05 09:49:00,
2013-01-05 04:52:00,21.5,18.8,30.33,West,281,1.0,4.0,89,0.00,,,0.00,0.00,VWS V14.01,2013-01-05 09:52:00,
2013-01-05 04:53:00,21.5,18.8,30.33,West,271,4.0,7.0,89,0.00,,,0.00,0.00,VWS V14.01,2013-01-05 09:53:00,
2013-01-05 04:54:00,21.5,18.8,30.33,West,269,2.0,7.0,89,0.00,,,0.00,0.00,VWS V14.01,2013-01-05 09:54:00,
2013-01-05 04:57:00,21.6,18.9,30.33,West,271,2.0,3.0,89,0.00,,,0.00,0.00,VWS V14.01,2013-01-05 09:57:00,
2013-01-05 04:58:00,21.6,19.1,30.33,West,270,2.0,3.0,90,0.00,,,0.00,0.00,VWS V14.01,2013-01-05 09:58:00,
2013-01-05 04:59:00,21.6,19.1,30.33,West,271,3.0,4.0,90,0.00,,,0.00,0.00,VWS V14.01,2013-01-05 09:59:00,
2013-01-05 05:02:00,21.6,19.1,30.32,West,271,4.0,4.0,90,0.00,,,0.00,0.00,VWS V14.01,2013-01-05 10:02:00,
2013-01-05 05:03:00,21.6,19.1,30.32,West,271,1.0,5.0,90,0.00,,,0.00,0.00,VWS V14.01,2013-01-05 10:03:00,
2013-01-05 05:04:00,21.6,19.1,30.32,West,272,2.0,5.0,90,0.00,,,0.00,0.00,VWS V14.01,2013-01-05 10:04:00,
2013-01-05 05:07:00,21.7,19.2,30.32,West,274,2.0,5.0,90,0.00,,,0.00,0.00,VWS V14.01,2013-01-05 10:07:00,
2013-01-05 05:08:00,21.7,19.2,30.32,West,274,1.0,4.0,90,0.00,,,0.00,0.00,VWS V14.01,2013-01-05 10:08:00,
2013-01-05 05:10:00,21.7,19.2,30.32,West,274,2.0,2.0,90,0.00,,,0.00,0.00,VWS V14.01,2013-01-05 10:10:00,
2013-01-05 05:12:00,21.7,19.2,30.32,West,274,4.0,5.0,90,0.00,,,0.00,0.00,VWS V14.01,2013-01-05 10:12:00,
2013-01-05 05:13:00,21.7,19.2,30.32,West,274,0.0,1.0,90,0.00,,,0.00,0.00,VWS V14.01,2013-01-05 10:13:00,
2013-01-05 05:14:00,21.7,19.2,30.32,West,274,1.0,1.0,90,0.00,,,0.00,0.00,VWS V14.01,2013-01-05 10:14:00,
2013-01-05 05:15:00,21.7,19.2,30.32,West,274,0.0,1.0,90,0.00,,,0.00,0.00,VWS V14.01,2013-01-05 10:15:00,
2013-01-05 05:17:00,21.7,19.2,30.32,West,274,0.0,1.0,90,0.00,,,0.00,0.00,VWS V14.01,2013-01-05 10:17:00,
2013-01-05 05:18:00,21.6,19.1,30.32,West,274,0.0,0.0,90,0.00,,,0.00,0.00,VWS V14.01,2013-01-05 10:18:00,
2013-01-05 05:19:00,21.6,19.1,30.32,West,274,0.0,1.0,90,0.00,,,0.00,0.00,VWS V14.01,2013-01-05 10:19:00,
2013-01-05 05:20:00,21.6,18.9,30.32,West,274,0.0,0.0,89,0.00,,,0.00,0.00,VWS V14.01,2013-01-05 10:20:00,
2013-01-05 05:22:00,21.6,18.9,30.32,West,274,0.0,0.0,89,0.00,,,0.00,0.00,VWS V14.01,2013-01-05 10:22:00,
2013-01-05 05:23:00,21.5,19.0,30.32,West,274,1.0,1.0,90,0.00,,,0.00,0.00,VWS V14.01,2013-01-05 10:23:00,
2013-01-05 05:24:00,21.6,19.1,30.32,West,274,0.0,1.0,90,0.00,,,0.00,0.00,VWS V14.01,2013-01-05 10:24:00,
2013-01-05 05:25:00,21.5,19.0,30.32,West,274,0.0,0.0,90,0.00,,,0.00,0.00,VWS V14.01,2013-01-05 10:25:00,
2013-01-05 05:28:00,21.5,18.8,30.32,West,274,0.0,0.0,89,0.00,,,0.00,0.00,VWS V14.01,2013-01-05 10:28:00,
2013-01-05 05:29:00,21.5,18.8,30.32,West,274,0.0,0.0,89,0.00,,,0.00,0.00,VWS V14.01,2013-01-05 10:29:00,
2013-01-05 05:30:00,21.4,18.7,30.32,West,274,0.0,2.0,89,0.00,,,0.00,0.00,VWS V14.01,2013-01-05 10:30:00,
2013-01-05 05:33:00,21.3,18.6,30.32,West,274,0.0,0.0,89,0.00,,,0.00,0.00,VWS V14.01,2013-01-05 10:33:00,
2013-01-05 05:34:00,21.2,18.5,30.32,West,274,0.0,0.0,89,0.00,,,0.00,0.00,VWS V14.01,2013-01-05 10:34:00,
2013-01-05 05:35:00,21.2,18.5,30.32,West,274,0.0,0.0,89,0.00,,,0.00,0.00,VWS V14.01,2013-01-05 10:35:00,
2013-01-05 05:38:00,21.0,18.3,30.32,West,274,0.0,0.0,89,0.00,,,0.00,0.00,VWS V14.01,2013-01-05 10:38:00,
2013-01-05 05:39:00,20.9,18.2,30.32,West,274,0.0,0.0,89,0.00,,,0.00,0.00,VWS V14.01,2013-01-05 10:39:00,
2013-01-05 05:40:00,20.9,18.2,30.32,West,274,0.0,0.0,89,0.00,,,0.00,0.00,VWS V14.01,2013-01-05 10:40:00,
2013-01-05 05:43:00,20.7,18.0,30.32,West,274,0.0,1.0,89,0.00,,,0.00,0.00,VWS V14.01,2013-01-05 10:43:00,
2013-01-05 05:44:00,20.7,18.0,30.33,West,274,0.0,0.0,89,0.00,,,0.00,0.00,VWS V14.01,2013-01-05 10:44:00,
2013-01-05 05:45:00,20.6,17.9,30.33,West,274,0.0,0.0,89,0.00,,,0.00,0.00,VWS V14.01,2013-01-05 10:45:00,
2013-01-05 05:48:00,20.6,18.1,30.33,West,274,0.0,0.0,90,0.00,,,0.00,0.00,VWS V14.01,2013-01-05 10:48:00,
2013-01-05 05:49:00,20.5,18.0,30.33,West,274,0.0,0.0,90,0.00,,,0.00,0.00,VWS V14.01,2013-01-05 10:49:00,
2013-01-05 05:50:00,20.5,18.0,30.33,West,274,0.0,1.0,90,0.00,,,0.00,0.00,VWS V14.01,2013-01-05 10:50:00,
2013-01-05 05:53:00,20.4,17.9,30.33,West,274,2.0,2.0,90,0.00,,,0.00,0.00,VWS V14.01,2013-01-05 10:53:00,
2013-01-05 05:54:00,20.4,17.9,30.33,West,274,1.0,2.0,90,0.00,,,0.00,0.00,VWS V14.01,2013-01-05 10:54:00,
2013-01-05 05:55:00,20.4,17.9,30.33,West,273,3.0,4.0,90,0.00,,,0.00,0.00,VWS V14.01,2013-01-05 10:55:00,
2013-01-05 05:58:00,20.5,18.3,30.33,West,273,0.0,4.0,91,0.00,,,0.00,0.00,VWS V14.01,2013-01-05 10:58:00,
2013-01-05 05:59:00,20.5,18.3,30.33,West,273,4.0,4.0,91,0.00,,,0.00,0.00,VWS V14.01,2013-01-05 10:59:00,
2013-01-05 06:00:00,20.6,18.4,30.33,West,273,1.0,4.0,91,0.00,,,0.00,0.00,VWS V14.01,2013-01-05 11:00:00,
2013-01-05 06:03:00,20.7,18.5,30.33,West,273,0.0,1.0,91,0.00,,,0.00,0.00,VWS V14.01,2013-01-05 11:03:00,
2013-01-05 06:04:00,20.7,18.5,30.33,West,273,0.0,0.0,91,0.00,,,0.00,0.00,VWS V14.01,2013-01-05 11:04:00,
2013-01-05 06:05:00,20.7,18.5,30.33,West,273,3.0,3.0,91,0.00,,,0.00,0.00,VWS V14.01,2013-01-05 11:05:00,
2013-01-05 06:08:00,20.8,18.6,30.33,West,273,0.0,0.0,91,0.00,,,0.00,0.00,VWS V14.01,2013-01-05 11:08:00,
2013-01-05 06:09:00,20.8,18.6,30.33,West,269,0.0,5.0,91,0.00,,,0.00,0.00,VWS V14.01,2013-01-05 11:09:00,
2013-01-05 06:10:00,20.8,18.6,30.33,West,266,0.0,5.0,91,0.00,,,0.00,0.00,VWS V14.01,2013-01-05 11:10:00,
2013-01-05 06:13:00,20.9,18.7,30.33,West,266,0.0,5.0,91,0.00,,,0.00,0.00,VWS V14.01,2013-01-05 11:13:00,
2013-01-05 06:14:00,20.9,18.7,30.33,West,266,3.0,3.0,91,0.00,,,0.00,0.00,VWS V14.01,2013-01-05 11:14:00,
2013-01-05 06:15:00,20.9,18.7,30.33,West,266,0.0,0.0,91,0.00,,,0.00,0.00,VWS V14.01,2013-01-05 11:15:00,
2013-01-05 06:18:00,20.9,18.7,30.33,West,266,0.0,0.0,91,0.00,,,0.00,0.00,VWS V14.01,2013-01-05 11:18:00,
2013-01-05 06:19:00,20.9,18.4,30.33,West,266,0.0,0.0,90,0.00,,,0.00,0.00,VWS V14.01,2013-01-05 11:19:00,
2013-01-05 06:20:00,20.9,18.7,30.33,West,266,0.0,0.0,91,0.00,,,0.00,0.00,VWS V14.01,2013-01-05 11:20:00,
2013-01-05 06:23:00,20.7,18.2,30.33,West,266,0.0,0.0,90,0.00,,,0.00,0.00,VWS V14.01,2013-01-05 11:23:00,
2013-01-05 06:24:00,20.7,18.2,30.33,West,266,0.0,0.0,90,0.00,,,0.00,0.00,VWS V14.01,2013-01-05 11:24:00,
2013-01-05 06:25:00,20.6,18.1,30.33,West,266,0.0,0.0,90,0.00,,,0.00,0.00,VWS V14.01,2013-01-05 11:25:00,
2013-01-05 06:28:00,20.5,18.0,30.33,West,266,0.0,0.0,90,0.00,,,0.00,0.00,VWS V14.01,2013-01-05 11:28:00,
2013-01-05 06:30:00,20.4,17.9,30.33,West,266,0.0,0.0,90,0.00,,,0.00,0.00,VWS V14.01,2013-01-05 11:30:00,
2013-01-05 06:33:00,20.2,17.7,30.33,West,266,0.0,0.0,90,0.00,,,0.00,0.00,VWS V14.01,2013-01-05 11:33:00,
2013-01-05 06:35:00,20.2,17.7,30.33,West,266,0.0,0.0,90,0.00,,,0.00,0.00,VWS V14.01,2013-01-05 11:35:00,
2013-01-05 06:38:00,20.0,17.5,30.32,West,266,0.0,0.0,90,0.00,,,0.00,0.00,VWS V14.01,2013-01-05 11:38:00,
2013-01-05 06:40:00,19.9,17.5,30.33,West,266,0.0,0.0,90,0.00,,,0.00,0.00,VWS V14.01,2013-01-05 11:40:00,
2013-01-05 06:43:00,19.8,17.4,30.32,West,266,0.0,0.0,90,0.00,,,0.00,0.00,VWS V14.01,2013-01-05 11:43:00,
2013-01-05 06:45:00,19.7,17.2,30.32,West,266,0.0,1.0,90,0.00,,,0.00,0.00,VWS V14.01,2013-01-05 11:45:00,
2013-01-05 06:48:00,19.7,17.5,30.32,West,266,0.0,0.0,91,0.00,,,0.00,0.00,VWS V14.01,2013-01-05 11:48:00,
2013-01-05 06:50:00,19.7,17.5,30.32,West,266,0.0,0.0,91,0.00,,,0.00,0.00,VWS V14.01,2013-01-05 11:50:00,
2013-01-05 06:51:00,19.6,17.4,30.32,West,266,0.0,0.0,91,0.00,,,0.00,0.00,VWS V14.01,2013-01-05 11:51:00,
2013-01-05 06:53:00,19.5,17.3,30.32,West,266,0.0,0.0,91,0.00,,,0.00,0.00,VWS V14.01,2013-01-05 11:53:00,
2013-01-05 06:55:00,19.5,17.3,30.32,West,266,0.0,0.0,91,0.00,,,0.00,0.00,VWS V14.01,2013-01-05 11:55:00,
2013-01-05 06:56:00,19.5,17.3,30.32,West,266,0.0,0.0,91,0.00,,,0.00,0.00,VWS V14.01,2013-01-05 11:56:00,
2013-01-05 06:58:00,19.4,17.2,30.32,West,265,0.0,0.0,91,0.00,,,0.00,0.00,VWS V14.01,2013-01-05 11:58:00,
2013-01-05 07:00:00,19.4,17.2,30.31,West,265,0.0,1.0,91,0.00,,,0.00,0.00,VWS V14.01,2013-01-05 12:00:00,
2013-01-05 07:01:00,19.4,17.2,30.31,West,265,0.0,1.0,91,0.00,,,0.00,0.00,VWS V14.01,2013-01-05 12:01:00,
2013-01-05 07:03:00,19.4,17.5,30.31,West,265,1.0,1.0,92,0.00,,,0.00,0.00,VWS V14.01,2013-01-05 12:03:00,
2013-01-05 07:05:00,19.5,17.6,30.31,West,265,0.0,0.0,92,0.00,,,0.00,0.00,VWS V14.01,2013-01-05 12:05:00,
2013-01-05 07:06:00,19.5,17.6,30.31,West,265,2.0,3.0,92,0.00,,,0.00,0.00,VWS V14.01,2013-01-05 12:06:00,
2013-01-05 07:09:00,19.5,17.6,30.31,West,265,0.0,0.0,92,0.00,,,0.00,0.00,VWS V14.01,2013-01-05 12:09:00,
2013-01-05 07:10:00,19.6,17.7,30.31,West,265,5.0,5.0,92,0.00,,,0.00,0.00,VWS V14.01,2013-01-05 12:10:00,
2013-01-05 07:11:00,19.6,17.7,30.31,West,264,0.0,5.0,92,0.00,,,0.00,0.00,VWS V14.01,2013-01-05 12:11:00,
2013-01-05 07:14:00,19.7,17.8,30.32,West,264,0.0,2.0,92,0.00,,,0.00,0.00,VWS V14.01,2013-01-05 12:14:00,
2013-01-05 07:15:00,19.6,17.7,30.32,West,264,1.0,2.0,92,0.00,,,0.00,0.00,VWS V14.01,2013-01-05 12:15:00,
2013-01-05 07:16:00,19.6,17.7,30.32,West,264,2.0,2.0,92,0.00,,,0.00,0.00,VWS V14.01,2013-01-05 12:16:00,
2013-01-05 07:19:00,19.6,17.7,30.32,West,264,0.0,2.0,92,0.00,,,0.00,0.00,VWS V14.01,2013-01-05 12:19:00,
2013-01-05 07:20:00,19.6,17.7,30.32,West,264,0.0,0.0,92,0.00,,,0.00,0.00,VWS V14.01,2013-01-05 12:20:00,
2013-01-05 07:21:00,19.6,17.7,30.32,West,264,0.0,0.0,92,0.00,,,0.00,0.00,VWS V14.01,2013-01-05 12:21:00,
2013-01-05 07:24:00,19.6,17.7,30.32,West,264,1.0,4.0,92,0.00,,,0.00,0.00,VWS V14.01,2013-01-05 12:24:00,
2013-01-05 07:25:00,19.5,17.6,30.32,West,264,0.0,0.0,92,0.00,,,0.00,0.00,VWS V14.01,2013-01-05 12:25:00,
2013-01-05 07:26:00,19.5,17.6,30.32,West,264,2.0,2.0,92,0.00,,,0.00,0.00,VWS V14.01,2013-01-05 12:26:00,
2013-01-05 07:29:00,19.5,17.6,30.32,West,264,0.0,0.0,92,0.00,,,0.00,0.00,VWS V14.01,2013-01-05 12:29:00,
2013-01-05 07:30:00,19.5,17.6,30.32,West,264,0.0,1.0,92,0.00,,,0.00,0.00,VWS V14.01,2013-01-05 12:30:00,
2013-01-05 07:31:00,19.5,17.6,30.32,West,264,0.0,0.0,92,0.00,,,0.00,0.00,VWS V14.01,2013-01-05 12:31:00,
2013-01-05 07:34:00,19.5,17.6,30.32,West,264,0.0,0.0,92,0.00,,,0.00,0.00,VWS V14.01,2013-01-05 12:34:00,
2013-01-05 07:35:00,19.5,17.6,30.32,West,261,0.0,2.0,92,0.00,,,0.00,0.00,VWS V14.01,2013-01-05 12:35:00,
2013-01-05 07:36:00,19.5,17.6,30.32,West,261,0.0,1.0,92,0.00,,,0.00,0.00,VWS V14.01,2013-01-05 12:36:00,
2013-01-05 07:39:00,19.6,17.7,30.32,West,261,0.0,0.0,92,0.00,,,0.00,0.00,VWS V14.01,2013-01-05 12:39:00,
2013-01-05 07:40:00,19.6,17.7,30.32,West,261,2.0,4.0,92,0.00,,,0.00,0.00,VWS V14.01,2013-01-05 12:40:00,
2013-01-05 07:41:00,19.6,17.7,30.32,West,261,1.0,2.0,92,0.00,,,0.00,0.00,VWS V14.01,2013-01-05 12:41:00,
2013-01-05 07:44:00,19.7,18.0,30.31,West,261,0.0,0.0,93,0.00,,,0.00,0.00,VWS V14.01,2013-01-05 12:44:00,
2013-01-05 07:45:00,19.8,18.1,30.31,West,261,2.0,2.0,93,0.00,,,0.00,0.00,VWS V14.01,2013-01-05 12:45:00,
2013-01-05 07:46:00,19.8,18.1,30.31,West,261,2.0,4.0,93,0.00,,,0.00,0.00,VWS V14.01,2013-01-05 12:46:00,
2013-01-05 07:49:00,19.8,18.1,30.32,West,261,2.0,2.0,93,0.00,,,0.00,0.00,VWS V14.01,2013-01-05 12:49:00,
2013-01-05 07:50:00,19.9,18.2,30.32,West,267,2.0,5.0,93,0.00,,,0.00,0.00,VWS V14.01,2013-01-05 12:50:00,
2013-01-05 07:51:00,19.9,18.2,30.32,West,267,1.0,4.0,93,0.00,,,0.00,0.00,VWS V14.01,2013-01-05 12:51:00,
2013-01-05 07:54:00,20.0,18.3,30.32,West,267,1.0,2.0,93,0.00,,,0.00,0.00,VWS V14.01,2013-01-05 12:54:00,
2013-01-05 07:55:00,19.9,18.2,30.32,West,267,1.0,3.0,93,0.00,,,0.00,0.00,VWS V14.01,2013-01-05 12:55:00,
2013-01-05 07:56:00,20.0,18.3,30.32,West,267,1.0,3.0,93,0.00,,,0.00,0.00,VWS V14.01,2013-01-05 12:56:00,
2013-01-05 07:59:00,20.0,18.3,30.32,West,267,1.0,2.0,93,0.00,,,0.00,0.00,VWS V14.01,2013-01-05 12:59:00,
2013-01-05 08:00:00,20.0,18.0,30.32,West,267,2.0,3.0,92,0.00,,,0.00,0.00,VWS V14.01,2013-01-05 13:00:00,
2013-01-05 08:01:00,20.0,18.0,30.32,West,267,2.0,3.0,92,0.00,,,0.00,0.00,VWS V14.01,2013-01-05 13:01:00,
2013-01-05 08:04:00,20.0,18.0,30.32,West,266,1.0,2.0,92,0.00,,,0.00,0.00,VWS V14.01,2013-01-05 13:04:00,
2013-01-05 08:05:00,20.0,18.0,30.32,West,266,1.0,2.0,92,0.00,,,0.00,0.00,VWS V14.01,2013-01-05 13:05:00,
2013-01-05 08:06:00,20.0,18.0,30.32,West,266,0.0,2.0,92,0.00,,,0.00,0.00,VWS V14.01,2013-01-05 13:06:00,
2013-01-05 08:09:00,20.1,18.1,30.32,West,266,1.0,1.0,92,0.00,,,0.00,0.00,VWS V14.01,2013-01-05 13:09:00,
2013-01-05 08:10:00,20.1,18.1,30.32,West,266,2.0,4.0,92,0.00,,,0.00,0.00,VWS V14.01,2013-01-05 13:10:00,
2013-01-05 08:11:00,20.1,18.1,30.32,West,266,0.0,4.0,92,0.00,,,0.00,0.00,VWS V14.01,2013-01-05 13:11:00,
2013-01-05 08:14:00,20.1,18.1,30.32,West,266,1.0,2.0,92,0.00,,,0.00,0.00,VWS V14.01,2013-01-05 13:14:00,
2013-01-05 08:15:00,20.1,18.1,30.32,West,266,0.0,0.0,92,0.00,,,0.00,0.00,VWS V14.01,2013-01-05 13:15:00,
2013-01-05 08:16:00,20.1,18.1,30.32,West,266,0.0,1.0,92,0.00,,,0.00,0.00,VWS V14.01,2013-01-05 13:16:00,
2013-01-05 08:19:00,20.1,18.1,30.32,West,266,2.0,2.0,92,0.00,,,0.00,0.00,VWS V14.01,2013-01-05 13:19:00,
2013-01-05 08:21:00,20.1,18.1,30.32,West,265,2.0,2.0,92,0.00,,,0.00,0.00,VWS V14.01,2013-01-05 13:21:00,
2013-01-05 08:24:00,20.1,18.1,30.32,West,265,1.0,2.0,92,0.00,,,0.00,0.00,VWS V14.01,2013-01-05 13:24:00,
2013-01-05 08:26:00,20.1,18.1,30.32,West,265,1.0,2.0,92,0.00,,,0.00,0.00,VWS V14.01,2013-01-05 13:26:00,
2013-01-05 08:29:00,20.2,18.2,30.32,West,263,2.0,2.0,92,0.00,,,0.00,0.00,VWS V14.01,2013-01-05 13:29:00,
2013-01-05 08:31:00,20.2,18.2,30.32,West,263,0.0,1.0,92,0.00,,,0.00,0.00,VWS V14.01,2013-01-05 13:31:00,
2013-01-05 08:34:00,20.3,18.4,30.33,West,262,0.0,2.0,92,0.00,,,0.00,0.00,VWS V14.01,2013-01-05 13:34:00,
2013-01-05 08:36:00,20.3,18.4,30.33,West,262,0.0,2.0,92,0.00,,,0.00,0.00,VWS V14.01,2013-01-05 13:36:00,
2013-01-05 08:39:00,20.3,18.4,30.33,West,262,0.0,0.0,92,0.00,,,0.00,0.00,VWS V14.01,2013-01-05 13:39:00,
2013-01-05 08:41:00,20.4,18.5,30.33,West,262,0.0,4.0,92,0.00,,,0.00,0.00,VWS V14.01,2013-01-05 13:41:00,
2013-01-05 08:42:00,20.4,18.5,30.33,West,262,0.0,2.0,92,0.00,,,0.00,0.00,VWS V14.01,2013-01-05 13:42:00,
2013-01-05 08:45:00,20.5,18.5,30.33,West,263,4.0,4.0,92,0.00,,,0.00,0.00,VWS V14.01,2013-01-05 13:45:00,
2013-01-05 08:46:00,20.5,18.5,30.33,West,263,1.0,2.0,92,0.00,,,0.00,0.00,VWS V14.01,2013-01-05 13:46:00,
2013-01-05 08:47:00,20.6,18.6,30.33,West,261,5.0,5.0,92,0.00,,,0.00,0.00,VWS V14.01,2013-01-05 13:47:00,
2013-01-05 08:50:00,20.7,18.8,30.33,West,261,3.0,4.0,92,0.00,,,0.00,0.00,VWS V14.01,2013-01-05 13:50:00,
2013-01-05 08:51:00,20.8,18.9,30.33,West,261,1.0,4.0,92,0.00,,,0.00,0.00,VWS V14.01,2013-01-05 13:51:00,
2013-01-05 08:52:00,20.9,19.0,30.33,West,261,1.0,4.0,92,0.00,,,0.00,0.00,VWS V14.01,2013-01-05 13:52:00,
2013-01-05 08:55:00,21.1,19.1,30.33,West,259,4.0,5.0,92,0.00,,,0.00,0.00,VWS V14.01,2013-01-05 13:55:00,
2013-01-05 08:56:00,21.2,19.2,30.33,West,260,0.0,5.0,92,0.00,,,0.00,0.00,VWS V14.01,2013-01-05 13:56:00,
2013-01-05 08:57:00,21.2,19.2,30.33,West,260,1.0,2.0,92,0.00,,,0.00,0.00,VWS V14.01,2013-01-05 13:57:00,
2013-01-05 09:00:00,21.4,19.4,30.32,West,260,0.0,2.0,92,0.00,,,0.00,0.00,VWS V14.01,2013-01-05 14:00:00,
2013-01-05 09:01:00,21.5,19.3,30.32,West,260,2.0,2.0,91,0.00,,,0.00,0.00,VWS V14.01,2013-01-05 14:01:00,
2013-01-05 09:02:00,21.5,19.3,30.32,West,260,0.0,3.0,91,0.00,,,0.00,0.00,VWS V14.01,2013-01-05 14:02:00,
2013-01-05 09:05:00,21.7,19.5,30.32,West,260,0.0,1.0,91,0.00,,,0.00,0.00,VWS V14.01,2013-01-05 14:05:00,
2013-01-05 09:06:00,21.8,19.6,30.32,West,260,2.0,4.0,91,0.00,,,0.00,0.00,VWS V14.01,2013-01-05 14:06:00,
2013-01-05 09:07:00,21.9,19.7,30.32,West,260,0.0,2.0,91,0.00,,,0.00,0.00,VWS V14.01,2013-01-05 14:07:00,
2013-01-05 09:10:00,22.2,20.0,30.32,West,259,2.0,2.0,91,0.00,,,0.00,0.00,VWS V14.01,2013-01-05 14:10:00,
2013-01-05 09:11:00,22.3,20.1,30.32,West,259,2.0,4.0,91,0.00,,,0.00,0.00,VWS V14.01,2013-01-05 14:11:00,
2013-01-05 09:12:00,22.4,20.2,30.32,West,259,0.0,4.0,91,0.00,,,0.00,0.00,VWS V14.01,2013-01-05 14:12:00,
2013-01-05 09:15:00,22.7,20.2,30.32,West,260,0.0,4.0,90,0.00,,,0.00,0.00,VWS V14.01,2013-01-05 14:15:00,
2013-01-05 09:16:00,22.9,20.4,30.32,WSW,257,2.0,3.0,90,0.00,,,0.00,0.00,VWS V14.01,2013-01-05 14:16:00,
2013-01-05 09:17:00,23.0,20.5,30.32,WSW,257,0.0,3.0,90,0.00,,,0.00,0.00,VWS V14.01,2013-01-05 14:17:00,
2013-01-05 09:20:00,23.3,20.8,30.31,WSW,257,3.0,4.0,90,0.00,,,0.00,0.00,VWS V14.01,2013-01-05 14:20:00,
2013-01-05 09:21:00,23.3,20.5,30.31,WSW,257,1.0,4.0,89,0.00,,,0.00,0.00,VWS V14.01,2013-01-05 14:21:00,
2013-01-05 09:22:00,23.4,20.6,30.31,WSW,256,2.0,4.0,89,0.00,,,0.00,0.00,VWS V14.01,2013-01-05 14:22:00,
2013-01-05 09:25:00,23.5,20.7,30.31,WSW,256,1.0,2.0,89,0.00,,,0.00,0.00,VWS V14.01,2013-01-05 14:25:00,
2013-01-05 09:26:00,23.6,20.8,30.31,WSW,256,2.0,2.0,89,0.00,,,0.00,0.00,VWS V14.01,2013-01-05 14:26:00,
2013-01-05 09:27:00,23.7,20.9,30.31,WSW,256,2.0,2.0,89,0.00,,,0.00,0.00,VWS V14.01,2013-01-05 14:27:00,
2013-01-05 09:30:00,23.9,20.9,30.31,WSW,256,4.0,5.0,88,0.00,,,0.00,0.00,VWS V14.01,2013-01-05 14:30:00,
2013-01-05 09:31:00,24.0,21.0,30.31,WSW,256,1.0,2.0,88,0.00,,,0.00,0.00,VWS V14.01,2013-01-05 14:31:00,
2013-01-05 09:32:00,24.1,21.1,30.31,WSW,256,4.0,4.0,88,0.00,,,0.00,0.00,VWS V14.01,2013-01-05 14:32:00,
2013-01-05 09:35:00,24.3,21.0,30.31,WSW,252,2.0,2.0,87,0.00,,,0.00,0.00,VWS V14.01,2013-01-05 14:35:00,
2013-01-05 09:36:00,24.3,21.0,30.31,WSW,252,2.0,4.0,87,0.00,,,0.00,0.00,VWS V14.01,2013-01-05 14:36:00,
2013-01-05 09:37:00,24.3,21.0,30.31,WSW,252,1.0,2.0,87,0.00,,,0.00,0.00,VWS V14.01,2013-01-05 14:37:00,
2013-01-05 09:40:00,24.5,21.2,30.31,WSW,250,5.0,5.0,87,0.00,,,0.00,0.00,VWS V14.01,2013-01-05 14:40:00,
2013-01-05 09:41:00,24.6,21.3,30.31,WSW,250,1.0,2.0,87,0.00,,,0.00,0.00,VWS V14.01,2013-01-05 14:41:00,
2013-01-05 09:42:00,24.7,21.4,30.31,WSW,250,2.0,2.0,87,0.00,,,0.00,0.00,VWS V14.01,2013-01-05 14:42:00,
2013-01-05 09:45:00,24.9,21.6,30.31,West,269,2.0,6.0,87,0.00,,,0.00,0.00,VWS V14.01,2013-01-05 14:45:00,
2013-01-05 09:46:00,25.0,21.7,30.31,West,259,7.0,7.0,87,0.00,,,0.00,0.00,VWS V14.01,2013-01-05 14:46:00,
2013-01-05 09:47:00,25.1,21.5,30.31,West,271,5.0,7.0,86,0.00,,,0.00,0.00,VWS V14.01,2013-01-05 14:47:00,
2013-01-05 09:50:00,25.2,21.6,30.31,WNW,283,2.0,6.0,86,0.00,,,0.00,0.00,VWS V14.01,2013-01-05 14:50:00,
2013-01-05 09:51:00,25.2,21.6,30.32,West,280,2.0,5.0,86,0.00,,,0.00,0.00,VWS V14.01,2013-01-05 14:51:00,
2013-01-05 09:52:00,25.3,21.7,30.32,WNW,284,4.0,6.0,86,0.00,,,0.00,0.00,VWS V14.01,2013-01-05 14:52:00,
2013-01-05 09:55:00,25.3,21.7,30.31,WSW,250,2.0,5.0,86,0.00,,,0.00,0.00,VWS V14.01,2013-01-05 14:55:00,
2013-01-05 09:56:00,25.3,21.7,30.31,WSW,248,3.0,7.0,86,0.00,,,0.00,0.00,VWS V14.01,2013-01-05 14:56:00,
2013-01-05 09:57:00,25.3,21.7,30.31,West,263,3.0,6.0,86,0.00,,,0.00,0.00,VWS V14.01,2013-01-05 14:57:00,
2013-01-05 10:00:00,25.5,21.9,30.32,West,267,5.0,6.0,86,0.00,,,0.00,0.00,VWS V14.01,2013-01-05 15:00:00,
2013-01-05 10:01:00,25.6,22.0,30.32,West,275,3.0,5.0,86,0.00,,,0.00,0.00,VWS V14.01,2013-01-05 15:01:00,
2013-01-05 10:02:00,25.7,22.1,30.32,West,277,1.0,6.0,86,0.00,,,0.00,0.00,VWS V14.01,2013-01-05 15:02:00,
2013-01-05 10:05:00,25.9,22.0,30.31,West,271,6.0,6.0,85,0.00,,,0.00,0.00,VWS V14.01,2013-01-05 15:05:00,
2013-01-05 10:06:00,26.0,22.1,30.32,WSW,257,7.0,8.0,85,0.00,,,0.00,0.00,VWS V14.01,2013-01-05 15:06:00,
2013-01-05 10:07:00,26.1,22.2,30.32,WSW,257,4.0,7.0,85,0.00,,,0.00,0.00,VWS V14.01,2013-01-05 15:07:00,
2013-01-05 10:10:00,26.4,22.5,30.32,WSW,253,3.0,6.0,85,0.00,,,0.00,0.00,VWS V14.01,2013-01-05 15:10:00,
2013-01-05 10:11:00,26.5,22.6,30.32,West,279,8.0,9.0,85,0.00,,,0.00,0.00,VWS V14.01,2013-01-05 15:11:00,
2013-01-05 10:12:00,26.6,22.4,30.32,West,273,6.0,9.0,84,0.00,,,0.00,0.00,VWS V14.01,2013-01-05 15:12:00,
2013-01-05 10:15:00,26.8,22.6,30.32,West,280,6.0,8.0,84,0.00,,,0.00,0.00,VWS V14.01,2013-01-05 15:15:00,
2013-01-05 10:16:00,26.9,22.7,30.31,West,277,4.0,9.0,84,0.00,,,0.00,0.00,VWS V14.01,2013-01-05 15:16:00,
2013-01-05 10:17:00,27.0,22.8,30.31,WNW,282,4.0,6.0,84,0.00,,,0.00,0.00,VWS V14.01,2013-01-05 15:17:00,
2013-01-05 10:20:00,27.4,23.2,30.31,West,272,5.0,5.0,84,0.00,,,0.00,0.00,VWS V14.01,2013-01-05 15:20:00,
2013-01-05 10:21:00,27.5,23.3,30.31,WNW,289,7.0,7.0,84,0.00,,,0.00,0.00,VWS V14.01,2013-01-05 15:21:00,
2013-01-05 10:23:00,27.6,23.4,30.31,West,277,2.0,7.0,84,0.00,,,0.00,0.00,VWS V14.01,2013-01-05 15:23:00,
2013-01-05 10:26:00,28.0,23.5,30.31,West,269,0.0,6.0,83,0.00,,,0.00,0.00,VWS V14.01,2013-01-05 15:26:00,
2013-01-05 10:28:00,28.3,23.8,30.31,WSW,247,5.0,5.0,83,0.00,,,0.00,0.00,VWS V14.01,2013-01-05 15:28:00,
2013-01-05 10:31:00,28.7,23.9,30.30,WSW,239,5.0,6.0,82,0.00,,,0.00,0.00,VWS V14.01,2013-01-05 15:31:00,
2013-01-05 10:33:00,29.0,24.2,30.30,WSW,252,2.0,4.0,82,0.00,,,0.00,0.00,VWS V14.01,2013-01-05 15:33:00,
2013-01-05 10:36:00,29.2,24.1,30.30,WSW,243,6.0,7.0,81,0.00,,,0.00,0.00,VWS V14.01,2013-01-05 15:36:00,
2013-01-05 10:38:00,29.4,24.0,30.30,WSW,245,6.0,7.0,80,0.00,,,0.00,0.00,VWS V14.01,2013-01-05 15:38:00,
2013-01-05 10:41:00,29.6,24.2,30.30,West,274,6.0,8.0,80,0.00,,,0.00,0.00,VWS V14.01,2013-01-05 15:41:00,
2013-01-05 10:43:00,29.7,24.0,30.30,SW,232,5.0,5.0,79,0.00,,,0.00,0.00,VWS V14.01,2013-01-05 15:43:00,
2013-01-05 10:46:00,29.8,24.1,30.30,SW,234,5.0,9.0,79,0.00,,,0.00,0.00,VWS V14.01,2013-01-05 15:46:00,
2013-01-05 10:47:00,29.9,24.2,30.30,SW,232,5.0,6.0,79,0.00,,,0.00,0.00,VWS V14.01,2013-01-05 15:47:00,
2013-01-05 10:48:00,29.9,24.2,30.30,SW,232,5.0,7.0,79,0.00,,,0.00,0.00,VWS V14.01,2013-01-05 15:48:00,
2013-01-05 10:51:00,29.8,24.1,30.30,WSW,254,5.0,6.0,79,0.00,,,0.00,0.00,VWS V14.01,2013-01-05 15:51:00,
2013-01-05 10:52:00,29.8,24.1,30.29,WSW,254,1.0,5.0,79,0.00,,,0.00,0.00,VWS V14.01,2013-01-05 15:52:00,
2013-01-05 10:53:00,29.9,24.2,30.30,SW,221,2.0,4.0,79,0.00,,,0.00,0.00,VWS V14.01,2013-01-05 15:53:00,
2013-01-05 10:56:00,29.9,24.2,30.30,West,263,4.0,4.0,79,0.00,,,0.00,0.00,VWS V14.01,2013-01-05 15:56:00,
2013-01-05 10:57:00,29.9,24.2,30.30,WSW,248,5.0,5.0,79,0.00,,,0.00,0.00,VWS V14.01,2013-01-05 15:57:00,
2013-01-05 10:58:00,29.9,24.2,30.30,West,278,5.0,5.0,79,0.00,,,0.00,0.00,VWS V14.01,2013-01-05 15:58:00,
2013-01-05 11:01:00,29.7,24.0,30.30,West,271,4.0,5.0,79,0.00,,,0.00,0.00,VWS V14.01,2013-01-05 16:01:00,
2013-01-05 11:02:00,29.7,24.0,30.30,WSW,256,7.0,9.0,79,0.00,,,0.00,0.00,VWS V14.01,2013-01-05 16:02:00,
2013-01-05 11:03:00,29.7,24.0,30.30,West,262,5.0,5.0,79,0.00,,,0.00,0.00,VWS V14.01,2013-01-05 16:03:00,
2013-01-05 11:06:00,29.6,24.2,30.30,West,271,2.0,4.0,80,0.00,,,0.00,0.00,VWS V14.01,2013-01-05 16:06:00,
2013-01-05 11:07:00,29.6,24.2,30.30,WNW,286,6.0,6.0,80,0.00,,,0.00,0.00,VWS V14.01,2013-01-05 16:07:00,
2013-01-05 11:08:00,29.5,23.8,30.30,West,262,7.0,7.0,79,0.00,,,0.00,0.00,VWS V14.01,2013-01-05 16:08:00,
2013-01-05 11:11:00,29.4,23.7,30.29,West,279,4.0,8.0,79,0.00,,,0.00,0.00,VWS V14.01,2013-01-05 16:11:00,
2013-01-05 11:12:00,29.4,23.7,30.29,West,281,6.0,8.0,79,0.00,,,0.00,0.00,VWS V14.01,2013-01-05 16:12:00,
2013-01-05 11:13:00,29.4,23.7,30.30,WSW,249,5.0,5.0,79,0.00,,,0.00,0.00,VWS V14.01,2013-01-05 16:13:00,
2013-01-05 11:16:00,29.6,24.2,30.29,West,266,6.0,6.0,80,0.00,,,0.00,0.00,VWS V14.01,2013-01-05 16:16:00,
2013-01-05 11:17:00,29.6,24.2,30.29,WNW,283,9.0,9.0,80,0.00,,,0.00,0.00,VWS V14.01,2013-01-05 16:17:00,
2013-01-05 11:18:00,29.7,24.0,30.29,WNW,284,4.0,6.0,79,0.00,,,0.00,0.00,VWS V14.01,2013-01-05 16:18:00,
2013-01-05 11:22:00,29.9,24.5,30.29,West,276,6.0,8.0,80,0.00,,,0.00,0.00,VWS V14.01,2013-01-05 16:22:00,
2013-01-05 11:23:00,29.9,24.2,30.29,West,270,4.0,9.0,79,0.00,,,0.00,0.00,VWS V14.01,2013-01-05 16:23:00,
2013-01-05 11:27:00,30.1,24.4,30.29,West,267,6.0,9.0,79,0.00,,,0.00,0.00,VWS V14.01,2013-01-05 16:27:00,
2013-01-05 11:28:00,30.1,24.4,30.29,West,267,8.0,8.0,79,0.01,,,0.01,0.00,VWS V14.01,2013-01-05 16:28:00,
2013-01-05 11:32:00,30.3,24.6,30.29,WSW,248,6.0,12.0,79,0.01,,,0.01,0.00,VWS V14.01,2013-01-05 16:32:00,
2013-01-05 11:33:00,30.4,24.7,30.29,West,272,7.0,12.0,79,0.01,,,0.01,0.00,VWS V14.01,2013-01-05 16:33:00,
2013-01-05 11:37:00,30.5,24.8,30.29,West,273,8.0,10.0,79,0.01,,,0.01,0.00,VWS V14.01,2013-01-05 16:37:00,
2013-01-05 11:39:00,30.6,24.9,30.29,West,266,5.0,8.0,79,0.01,,,0.01,0.00,VWS V14.01,2013-01-05 16:39:00,
2013-01-05 11:42:00,30.7,24.7,30.29,West,272,5.0,7.0,78,0.01,,,0.01,0.00,VWS V14.01,2013-01-05 16:42:00,
2013-01-05 11:44:00,30.8,24.8,30.29,West,261,6.0,6.0,78,0.01,,,0.01,0.00,VWS V14.01,2013-01-05 16:44:00,
2013-01-05 11:47:00,31.0,25.0,30.29,WNW,292,7.0,9.0,78,0.01,,,0.01,0.00,VWS V14.01,2013-01-05 16:47:00,
2013-01-05 11:49:00,31.1,24.8,30.29,West,265,2.0,7.0,77,0.01,,,0.01,0.00,VWS V14.01,2013-01-05 16:49:00,
2013-01-05 11:52:00,31.2,24.8,30.29,West,275,5.0,12.0,77,0.01,,,0.01,0.00,VWS V14.01,2013-01-05 16:52:00,
2013-01-05 11:54:00,31.1,24.8,30.29,WSW,255,5.0,9.0,77,0.01,,,0.01,0.00,VWS V14.01,2013-01-05 16:54:00,
2013-01-05 11:57:00,31.2,25.1,30.29,SW,229,1.0,9.0,78,0.01,,,0.01,0.00,VWS V14.01,2013-01-05 16:57:00,
2013-01-05 11:59:00,31.3,24.9,30.29,WSW,247,9.0,10.0,77,0.01,,,0.01,0.00,VWS V14.01,2013-01-05 16:59:00,
2013-01-05 12:02:00,31.3,25.2,30.28,WSW,246,8.0,10.0,78,0.01,,,0.01,0.00,VWS V14.01,2013-01-05 17:02:00,
2013-01-05 12:04:00,31.3,24.9,30.28,West,270,5.0,10.0,77,0.01,,,0.01,0.00,VWS V14.01,2013-01-05 17:04:00,
2013-01-05 12:07:00,31.4,25.0,30.27,WSW,254,8.0,8.0,77,0.01,,,0.01,0.00,VWS V14.01,2013-01-05 17:07:00,
2013-01-05 12:09:00,31.4,25.4,30.27,West,281,8.0,10.0,78,0.01,,,0.01,0.00,VWS V14.01,2013-01-05 17:09:00,
2013-01-05 12:12:00,31.5,25.4,30.27,West,281,5.0,11.0,78,0.01,,,0.01,0.00,VWS V14.01,2013-01-05 17:12:00,
2013-01-05 12:14:00,31.5,25.1,30.27,WSW,251,6.0,7.0,77,0.01,,,0.01,0.00,VWS V14.01,2013-01-05 17:14:00,
2013-01-05 12:17:00,31.4,25.0,30.27,West,267,9.0,9.0,77,0.01,,,0.01,0.00,VWS V14.01,2013-01-05 17:17:00,
2013-01-05 12:18:00,31.4,25.0,30.27,West,259,7.0,7.0,77,0.01,,,0.01,0.00,VWS V14.01,2013-01-05 17:18:00,
2013-01-05 12:19:00,31.3,24.9,30.27,WSW,246,9.0,11.0,77,0.01,,,0.01,0.00,VWS V14.01,2013-01-05 17:19:00,
2013-01-05 12:22:00,31.2,25.1,30.26,West,270,7.0,9.0,78,0.01,,,0.01,0.00,VWS V14.01,2013-01-05 17:22:00,
2013-01-05 12:23:00,31.2,25.1,30.26,West,271,7.0,7.0,78,0.01,,,0.01,0.00,VWS V14.01,2013-01-05 17:23:00,
2013-01-05 12:24:00,31.2,25.1,30.26,WNW,288,6.0,8.0,78,0.01,,,0.01,0.00,VWS V14.01,2013-01-05 17:24:00,
2013-01-05 12:27:00,31.3,25.2,30.26,West,277,5.0,10.0,78,0.01,,,0.01,0.00,VWS V14.01,2013-01-05 17:27:00,
2013-01-05 12:28:00,31.3,25.2,30.26,WNW,294,8.0,9.0,78,0.01,,,0.01,0.00,VWS V14.01,2013-01-05 17:28:00,
2013-01-05 12:29:00,31.3,25.2,30.26,WSW,255,10.0,10.0,78,0.00,,,0.01,0.00,VWS V14.01,2013-01-05 17:29:00,
2013-01-05 12:32:00,31.3,25.2,30.26,West,271,6.0,6.0,78,0.00,,,0.01,0.00,VWS V14.01,2013-01-05 17:32:00,
2013-01-05 12:33:00,31.3,25.2,30.26,West,268,5.0,8.0,78,0.00,,,0.01,0.00,VWS V14.01,2013-01-05 17:33:00,
2013-01-05 12:34:00,31.3,25.2,30.26,WNW,294,7.0,7.0,78,0.00,,,0.01,0.00,VWS V14.01,2013-01-05 17:34:00,
2013-01-05 12:37:00,31.5,25.8,30.26,WNW,291,8.0,8.0,79,0.00,,,0.01,0.00,VWS V14.01,2013-01-05 17:37:00,
2013-01-05 12:38:00,31.5,25.8,30.26,WNW,284,5.0,8.0,79,0.00,,,0.01,0.00,VWS V14.01,2013-01-05 17:38:00,
2013-01-05 12:39:00,31.5,25.4,30.26,West,281,9.0,9.0,78,0.00,,,0.01,0.00,VWS V14.01,2013-01-05 17:39:00,
2013-01-05 12:42:00,31.6,25.5,30.26,WNW,294,9.0,9.0,78,0.00,,,0.01,0.00,VWS V14.01,2013-01-05 17:42:00,
2013-01-05 12:43:00,31.5,25.4,30.26,WNW,292,6.0,9.0,78,0.00,,,0.01,0.00,VWS V14.01,2013-01-05 17:43:00,
2013-01-05 12:44:00,31.5,25.4,30.25,West,271,9.0,9.0,78,0.00,,,0.01,0.00,VWS V14.01,2013-01-05 17:44:00,
2013-01-05 12:47:00,31.6,25.5,30.25,WNW,288,8.0,12.0,78,0.00,,,0.01,0.00,VWS V14.01,2013-01-05 17:47:00,
2013-01-05 12:48:00,31.6,25.5,30.25,West,277,4.0,12.0,78,0.00,,,0.01,0.00,VWS V14.01,2013-01-05 17:48:00,
2013-01-05 12:49:00,31.7,25.6,30.25,West,271,5.0,8.0,78,0.00,,,0.01,0.00,VWS V14.01,2013-01-05 17:49:00,
2013-01-05 12:52:00,31.7,25.6,30.25,West,275,4.0,6.0,78,0.00,,,0.01,0.00,VWS V14.01,2013-01-05 17:52:00,
2013-01-05 12:53:00,31.8,25.7,30.25,WNW,288,6.0,6.0,78,0.00,,,0.01,0.00,VWS V14.01,2013-01-05 17:53:00,
2013-01-05 12:54:00,31.8,25.7,30.25,West,280,9.0,9.0,78,0.00,,,0.01,0.00,VWS V14.01,2013-01-05 17:54:00,
2013-01-05 12:57:00,31.9,25.8,30.25,West,265,3.0,5.0,78,0.00,,,0.01,0.00,VWS V14.01,2013-01-05 17:57:00,
2013-01-05 12:58:00,32.0,25.9,30.25,WSW,244,8.0,10.0,78,0.00,,,0.01,0.00,VWS V14.01,2013-01-05 17:58:00,
2013-01-05 12:59:00,32.0,25.9,30.24,WSW,253,7.0,7.0,78,0.00,,,0.01,0.00,VWS V14.01,2013-01-05 17:59:00,
2013-01-05 13:02:00,32.1,26.3,30.24,WSW,237,4.0,5.0,79,0.00,,,0.01,0.00,VWS V14.01,2013-01-05 18:02:00,
2013-01-05 13:03:00,32.1,26.3,30.24,WSW,250,5.0,5.0,79,0.00,,,0.01,0.00,VWS V14.01,2013-01-05 18:03:00,
2013-01-05 13:04:00,32.2,26.1,30.24,West,266,7.0,7.0,78,0.00,,,0.01,0.00,VWS V14.01,2013-01-05 18:04:00,
2013-01-05 13:07:00,32.3,26.2,30.24,WNW,292,7.0,7.0,78,0.00,,,0.01,0.00,VWS V14.01,2013-01-05 18:07:00,
2013-01-05 13:08:00,32.3,26.2,30.24,WNW,288,7.0,11.0,78,0.00,,,0.01,0.00,VWS V14.01,2013-01-05 18:08:00,
2013-01-05 13:09:00,32.3,26.2,30.24,WNW,284,7.0,9.0,78,0.00,,,0.01,0.00,VWS V14.01,2013-01-05 18:09:00,
2013-01-05 13:12:00,32.5,26.4,30.23,WNW,287,5.0,7.0,78,0.00,,,0.01,0.00,VWS V14.01,2013-01-05 18:12:00,
2013-01-05 13:13:00,32.5,26.4,30.23,WNW,286,2.0,7.0,78,0.00,,,0.01,0.00,VWS V14.01,2013-01-05 18:13:00,
2013-01-05 13:14:00,32.5,26.4,30.23,West,273,7.0,10.0,78,0.00,,,0.01,0.00,VWS V14.01,2013-01-05 18:14:00,
2013-01-05 13:17:00,32.6,26.2,30.23,WNW,289,6.0,8.0,77,0.00,,,0.01,0.00,VWS V14.01,2013-01-05 18:17:00,
2013-01-05 13:18:00,32.6,26.2,30.23,WNW,298,5.0,8.0,77,0.00,,,0.01,0.00,VWS V14.01,2013-01-05 18:18:00,
2013-01-05 13:19:00,32.6,26.5,30.23,WNW,290,2.0,6.0,78,0.00,,,0.01,0.00,VWS V14.01,2013-01-05 18:19:00,
2013-01-05 13:22:00,32.9,26.8,30.22,WNW,293,7.0,7.0,78,0.00,,,0.01,0.00,VWS V14.01,2013-01-05 18:22:00,
2013-01-05 13:23:00,32.9,26.8,30.22,West,276,6.0,8.0,78,0.00,,,0.01,0.00,VWS V14.01,2013-01-05 18:23:00,
2013-01-05 13:24:00,32.9,26.5,30.22,WNW,289,9.0,10.0,77,0.00,,,0.01,0.00,VWS V14.01,2013-01-05 18:24:00,
2013-01-05 13:27:00,32.7,26.3,30.22,WNW,302,5.0,8.0,77,0.00,,,0.01,0.00,VWS V14.01,2013-01-05 18:27:00,
2013-01-05 13:28:00,32.7,26.3,30.22,WNW,295,6.0,8.0,77,0.00,,,0.01,0.00,VWS V14.01,2013-01-05 18:28:00,
2013-01-05 13:30:00,32.8,26.4,30.22,WNW,286,3.0,6.0,77,0.00,,,0.01,0.00,VWS V14.01,2013-01-05 18:30:00,
2013-01-05 13:32:00,33.0,26.9,30.22,WNW,293,7.0,8.0,78,0.00,,,0.01,0.00,VWS V14.01,2013-01-05 18:32:00,
2013-01-05 13:33:00,33.0,26.9,30.22,WNW,292,8.0,8.0,78,0.00,,,0.01,0.00,VWS V14.01,2013-01-05 18:33:00,
2013-01-05 13:35:00,33.1,26.7,30.21,WNW,284,5.0,8.0,77,0.00,,,0.01,0.00,VWS V14.01,2013-01-05 18:35:00,
2013-01-05 13:38:00,33.3,26.6,30.21,WNW,286,5.0,7.0,76,0.00,,,0.01,0.00,VWS V14.01,2013-01-05 18:38:00,
2013-01-05 13:40:00,33.4,26.7,30.21,West,273,7.0,10.0,76,0.00,,,0.01,0.00,VWS V14.01,2013-01-05 18:40:00,
2013-01-05 13:42:00,33.4,26.7,30.21,West,272,5.0,11.0,76,0.00,,,0.01,0.00,VWS V14.01,2013-01-05 18:42:00,
2013-01-05 13:43:00,33.4,26.7,30.21,WNW,282,7.0,11.0,76,0.00,,,0.01,0.00,VWS V14.01,2013-01-05 18:43:00,
2013-01-05 13:44:00,33.4,26.7,30.22,WNW,298,5.0,8.0,76,0.00,,,0.01,0.00,VWS V14.01,2013-01-05 18:44:00,
2013-01-05 13:45:00,33.4,26.7,30.22,WNW,288,2.0,6.0,76,0.00,,,0.01,0.00,VWS V14.01,2013-01-05 18:45:00,
2013-01-05 13:48:00,33.7,27.0,30.22,West,271,4.0,6.0,76,0.00,,,0.01,0.00,VWS V14.01,2013-01-05 18:48:00,
2013-01-05 13:49:00,33.7,27.0,30.22,West,274,9.0,9.0,76,0.00,,,0.01,0.00,VWS V14.01,2013-01-05 18:49:00,
2013-01-05 13:50:00,33.8,27.0,30.22,WSW,246,7.0,9.0,76,0.00,,,0.01,0.00,VWS V14.01,2013-01-05 18:50:00,
2013-01-05 13:53:00,33.7,26.6,30.21,West,279,8.0,10.0,75,0.00,,,0.01,0.00,VWS V14.01,2013-01-05 18:53:00,
2013-01-05 13:54:00,33.8,26.7,30.21,WSW,248,2.0,8.0,75,0.00,,,0.01,0.00,VWS V14.01,2013-01-05 18:54:00,
2013-01-05 13:55:00,33.9,27.1,30.21,WSW,258,7.0,7.0,76,0.00,,,0.01,0.00,VWS V14.01,2013-01-05 18:55:00,
2013-01-05 13:58:00,33.9,27.1,30.21,WNW,295,2.0,5.0,76,0.00,,,0.01,0.00,VWS V14.01,2013-01-05 18:58:00,
2013-01-05 13:59:00,33.9,27.1,30.21,NW,309,6.0,9.0,76,0.00,,,0.01,0.00,VWS V14.01,2013-01-05 18:59:00,
2013-01-05 14:00:00,33.9,27.1,30.21,WNW,283,9.0,10.0,76,0.00,,,0.01,0.00,VWS V14.01,2013-01-05 19:00:00,
2013-01-05 14:03:00,33.6,26.9,30.21,WNW,299,6.0,6.0,76,0.00,,,0.01,0.00,VWS V14.01,2013-01-05 19:03:00,
2013-01-05 14:04:00,33.6,26.9,30.21,WNW,298,1.0,6.0,76,0.00,,,0.01,0.00,VWS V14.01,2013-01-05 19:04:00,
2013-01-05 14:05:00,33.6,26.9,30.21,WNW,298,3.0,4.0,76,0.00,,,0.01,0.00,VWS V14.01,2013-01-05 19:05:00,
2013-01-05 14:08:00,33.6,26.9,30.21,WNW,293,5.0,6.0,76,0.00,,,0.01,0.00,VWS V14.01,2013-01-05 19:08:00,
2013-01-05 14:09:00,33.5,26.8,30.21,West,267,10.0,11.0,76,0.00,,,0.01,0.00,VWS V14.01,2013-01-05 19:09:00,
2013-01-05 14:10:00,33.5,26.8,30.21,WNW,289,9.0,10.0,76,0.00,,,0.01,0.00,VWS V14.01,2013-01-05 19:10:00,
2013-01-05 14:13:00,33.3,26.9,30.20,WNW,294,11.0,11.0,77,0.00,,,0.01,0.00,VWS V14.01,2013-01-05 19:13:00,
2013-01-05 14:14:00,33.3,26.9,30.20,West,259,5.0,12.0,77,0.00,,,0.01,0.00,VWS V14.01,2013-01-05 19:14:00,
2013-01-05 14:15:00,33.2,26.8,30.20,WNW,302,7.0,10.0,77,0.00,,,0.01,0.00,VWS V14.01,2013-01-05 19:15:00,
2013-01-05 14:18:00,33.2,27.1,30.20,WNW,288,6.0,6.0,78,0.00,,,0.01,0.00,VWS V14.01,2013-01-05 19:18:00,
2013-01-05 14:19:00,33.2,27.1,30.20,West,276,11.0,11.0,78,0.00,,,0.01,0.00,VWS V14.01,2013-01-05 19:19:00,
2013-01-05 14:20:00,33.2,26.8,30.20,NW,309,9.0,11.0,77,0.00,,,0.01,0.00,VWS V14.01,2013-01-05 19:20:00,
2013-01-05 14:23:00,33.3,26.9,30.19,WSW,252,7.0,7.0,77,0.00,,,0.01,0.00,VWS V14.01,2013-01-05 19:23:00,
2013-01-05 14:24:00,33.3,26.9,30.19,WSW,240,5.0,7.0,77,0.00,,,0.01,0.00,VWS V14.01,2013-01-05 19:24:00,
2013-01-05 14:25:00,33.3,26.9,30.19,West,271,6.0,6.0,77,0.00,,,0.01,0.00,VWS V14.01,2013-01-05 19:25:00,
2013-01-05 14:28:00,33.4,27.3,30.18,West,260,5.0,7.0,78,0.00,,,0.01,0.00,VWS V14.01,2013-01-05 19:28:00,
2013-01-05 14:29:00,33.5,27.1,30.18,West,280,12.0,12.0,77,0.00,,,0.01,0.00,VWS V14.01,2013-01-05 19:29:00,
2013-01-05 14:30:00,33.5,27.1,30.18,West,265,6.0,6.0,77,0.00,,,0.01,0.00,VWS V14.01,2013-01-05 19:30:00,
2013-01-05 14:33:00,33.8,27.4,30.18,West,265,4.0,4.0,77,0.00,,,0.01,0.00,VWS V14.01,2013-01-05 19:33:00,
2013-01-05 14:34:00,33.9,27.5,30.19,WSW,247,7.0,7.0,77,0.00,,,0.01,0.00,VWS V14.01,2013-01-05 19:34:00,
2013-01-05 14:35:00,34.0,27.6,30.19,West,266,7.0,8.0,77,0.00,,,0.01,0.00,VWS V14.01,2013-01-05 19:35:00,
2013-01-05 14:38:00,34.1,27.7,30.18,West,259,8.0,10.0,77,0.00,,,0.01,0.00,VWS V14.01,2013-01-05 19:38:00,
2013-01-05 14:39:00,34.1,27.7,30.18,WSW,250,7.0,7.0,77,0.00,,,0.01,0.00,VWS V14.01,2013-01-05 19:39:00,
2013-01-05 14:40:00,34.2,27.4,30.18,WSW,243,7.0,7.0,76,0.00,,,0.01,0.00,VWS V14.01,2013-01-05 19:40:00,
2013-01-05 14:43:00,34.2,27.4,30.18,WNW,288,5.0,8.0,76,0.00,,,0.01,0.00,VWS V14.01,2013-01-05 19:43:00,
2013-01-05 14:44:00,34.3,27.5,30.18,WNW,283,5.0,7.0,76,0.00,,,0.01,0.00,VWS V14.01,2013-01-05 19:44:00,
2013-01-05 14:45:00,34.3,27.5,30.18,West,281,10.0,12.0,76,0.00,,,0.01,0.00,VWS V14.01,2013-01-05 19:45:00,
2013-01-05 14:48:00,34.3,27.5,30.18,North,360,5.0,9.0,76,0.00,,,0.01,0.00,VWS V14.01,2013-01-05 19:48:00,
2013-01-05 14:49:00,34.3,27.5,30.19,WNW,284,5.0,6.0,76,0.00,,,0.01,0.00,VWS V14.01,2013-01-05 19:49:00,
2013-01-05 14:51:00,34.4,27.6,30.19,WNW,294,8.0,13.0,76,0.00,,,0.01,0.00,VWS V14.01,2013-01-05 19:51:00,
2013-01-05 14:53:00,34.4,27.3,30.18,West,268,9.0,9.0,75,0.00,,,0.01,0.00,VWS V14.01,2013-01-05 19:53:00,
2013-01-05 14:54:00,34.4,27.3,30.19,West,271,9.0,11.0,75,0.00,,,0.01,0.00,VWS V14.01,2013-01-05 19:54:00,
2013-01-05 14:56:00,34.3,27.2,30.19,West,279,5.0,9.0,75,0.00,,,0.01,0.00,VWS V14.01,2013-01-05 19:56:00,
2013-01-05 14:58:00,34.3,27.2,30.18,WNW,289,5.0,10.0,75,0.00,,,0.01,0.00,VWS V14.01,2013-01-05 19:58:00,
2013-01-05 14:59:00,34.3,27.2,30.18,WNW,292,5.0,6.0,75,0.00,,,0.01,0.00,VWS V14.01,2013-01-05 19:59:00,
2013-01-05 15:01:00,34.3,27.2,30.18,West,271,5.0,6.0,75,0.00,,,0.01,0.00,VWS V14.01,2013-01-05 20:01:00,
2013-01-05 15:03:00,34.4,27.6,30.18,West,279,9.0,9.0,76,0.00,,,0.01,0.00,VWS V14.01,2013-01-05 20:03:00,
2013-01-05 15:04:00,34.4,27.3,30.18,WNW,284,7.0,8.0,75,0.00,,,0.01,0.00,VWS V14.01,2013-01-05 20:04:00,
2013-01-05 15:06:00,34.4,27.3,30.18,West,269,2.0,3.0,75,0.00,,,0.01,0.00,VWS V14.01,2013-01-05 20:06:00,
2013-01-05 15:08:00,34.6,27.8,30.18,WNW,286,5.0,6.0,76,0.00,,,0.01,0.00,VWS V14.01,2013-01-05 20:08:00,
2013-01-05 15:09:00,34.6,27.8,30.18,West,265,4.0,8.0,76,0.00,,,0.01,0.00,VWS V14.01,2013-01-05 20:09:00,
2013-01-05 15:11:00,34.6,27.8,30.18,WSW,258,1.0,1.0,76,0.00,,,0.01,0.00,VWS V14.01,2013-01-05 20:11:00,
2013-01-05 15:13:00,34.7,27.9,30.18,West,277,1.0,5.0,76,0.01,,,0.02,0.00,VWS V14.01,2013-01-05 20:13:00,
2013-01-05 15:14:00,34.7,27.9,30.18,West,277,0.0,5.0,76,0.01,,,0.02,0.00,VWS V14.01,2013-01-05 20:14:00,
2013-01-05 15:16:00,34.6,27.8,30.18,West,263,4.0,7.0,76,0.01,,,0.02,0.00,VWS V14.01,2013-01-05 20:16:00,
2013-01-05 15:18:00,34.6,28.1,30.18,WSW,246,4.0,5.0,77,0.01,,,0.02,0.00,VWS V14.01,2013-01-05 20:18:00,
2013-01-05 15:19:00,34.6,28.1,30.18,WSW,246,3.0,5.0,77,0.01,,,0.02,0.00,VWS V14.01,2013-01-05 20:19:00,
2013-01-05 15:21:00,34.5,28.0,30.18,WSW,257,5.0,8.0,77,0.01,,,0.02,0.00,VWS V14.01,2013-01-05 20:21:00,
2013-01-05 15:24:00,34.4,28.0,30.18,WSW,253,6.0,6.0,77,0.01,,,0.02,0.00,VWS V14.01,2013-01-05 20:24:00,
2013-01-05 15:26:00,34.4,28.0,30.17,WSW,254,6.0,7.0,77,0.01,,,0.02,0.00,VWS V14.01,2013-01-05 20:26:00,
2013-01-05 15:29:00,34.4,28.0,30.17,West,265,5.0,6.0,77,0.01,,,0.02,0.00,VWS V14.01,2013-01-05 20:29:00,
2013-01-05 15:31:00,34.4,28.0,30.18,WSW,257,6.0,6.0,77,0.01,,,0.02,0.00,VWS V14.01,2013-01-05 20:31:00,
2013-01-05 15:34:00,34.5,28.0,30.17,WSW,257,6.0,6.0,77,0.01,,,0.02,0.00,VWS V14.01,2013-01-05 20:34:00,
2013-01-05 15:35:00,34.5,28.4,30.17,West,274,2.0,8.0,78,0.01,,,0.02,0.00,VWS V14.01,2013-01-05 20:35:00,
2013-01-05 15:36:00,34.5,28.4,30.17,West,276,6.0,9.0,78,0.01,,,0.02,0.00,VWS V14.01,2013-01-05 20:36:00,
2013-01-05 15:39:00,34.6,28.5,30.17,West,278,2.0,6.0,78,0.01,,,0.02,0.00,VWS V14.01,2013-01-05 20:39:00,
2013-01-05 15:40:00,34.6,28.5,30.17,WNW,295,7.0,7.0,78,0.01,,,0.02,0.00,VWS V14.01,2013-01-05 20:40:00,
2013-01-05 15:41:00,34.7,28.2,30.17,West,275,6.0,8.0,77,0.01,,,0.02,0.00,VWS V14.01,2013-01-05 20:41:00,
2013-01-05 15:44:00,34.8,28.3,30.17,WNW,284,8.0,10.0,77,0.01,,,0.02,0.00,VWS V14.01,2013-01-05 20:44:00,
2013-01-05 15:45:00,34.8,28.3,30.17,West,259,6.0,7.0,77,0.01,,,0.02,0.00,VWS V14.01,2013-01-05 20:45:00,
2013-01-05 15:46:00,34.9,28.4,30.17,West,269,4.0,6.0,77,0.01,,,0.02,0.00,VWS V14.01,2013-01-05 20:46:00,
2013-01-05 15:49:00,35.0,28.5,30.17,WSW,253,9.0,9.0,77,0.01,,,0.02,0.00,VWS V14.01,2013-01-05 20:49:00,
2013-01-05 15:50:00,35.0,28.5,30.17,WNW,284,5.0,9.0,77,0.01,,,0.02,0.00,VWS V14.01,2013-01-05 20:50:00,
2013-01-05 15:51:00,35.0,28.5,30.17,WNW,292,5.0,8.0,77,0.01,,,0.02,0.00,VWS V14.01,2013-01-05 20:51:00,
2013-01-05 15:54:00,35.0,28.5,30.17,WNW,292,4.0,5.0,77,0.01,,,0.02,0.00,VWS V14.01,2013-01-05 20:54:00,
2013-01-05 15:55:00,35.1,28.6,30.17,WNW,292,3.0,5.0,77,0.01,,,0.02,0.00,VWS V14.01,2013-01-05 20:55:00,
2013-01-05 15:57:00,35.1,28.3,30.17,West,261,4.0,6.0,76,0.01,,,0.02,0.00,VWS V14.01,2013-01-05 20:57:00,
2013-01-05 15:59:00,35.1,28.3,30.16,West,275,4.0,5.0,76,0.01,,,0.02,0.00,VWS V14.01,2013-01-05 20:59:00,
2013-01-05 16:00:00,35.1,28.6,30.16,West,275,5.0,6.0,77,0.01,,,0.02,0.00,VWS V14.01,2013-01-05 21:00:00,
2013-01-05 16:02:00,35.1,28.3,30.17,West,280,5.0,11.0,76,0.01,,,0.02,0.00,VWS V14.01,2013-01-05 21:02:00,
2013-01-05 16:04:00,35.1,28.6,30.17,West,275,4.0,4.0,77,0.01,,,0.02,0.00,VWS V14.01,2013-01-05 21:04:00,
2013-01-05 16:05:00,35.1,28.6,30.17,WNW,288,6.0,7.0,77,0.01,,,0.02,0.00,VWS V14.01,2013-01-05 21:05:00,
2013-01-05 16:07:00,35.1,28.6,30.17,West,279,9.0,9.0,77,0.01,,,0.02,0.00,VWS V14.01,2013-01-05 21:07:00,
2013-01-05 16:09:00,35.1,28.3,30.17,WNW,288,5.0,6.0,76,0.01,,,0.02,0.00,VWS V14.01,2013-01-05 21:09:00,
2013-01-05 16:10:00,35.2,28.7,30.17,West,268,8.0,8.0,77,0.01,,,0.02,0.00,VWS V14.01,2013-01-05 21:10:00,
2013-01-05 16:12:00,35.2,28.7,30.17,West,277,4.0,8.0,77,0.01,,,0.02,0.00,VWS V14.01,2013-01-05 21:12:00,
2013-01-05 16:14:00,35.2,28.7,30.18,WNW,290,5.0,5.0,77,0.00,,,0.02,0.00,VWS V14.01,2013-01-05 21:14:00,
2013-01-05 16:15:00,35.2,28.7,30.18,West,273,4.0,9.0,77,0.00,,,0.02,0.00,VWS V14.01,2013-01-05 21:15:00,
2013-01-05 16:17:00,35.2,28.7,30.18,West,278,5.0,6.0,77,0.00,,,0.02,0.00,VWS V14.01,2013-01-05 21:17:00,
2013-01-05 16:19:00,35.2,28.7,30.18,WNW,291,6.0,9.0,77,0.00,,,0.02,0.00,VWS V14.01,2013-01-05 21:19:00,
2013-01-05 16:20:00,35.2,28.7,30.18,West,270,9.0,9.0,77,0.00,,,0.02,0.00,VWS V14.01,2013-01-05 21:20:00,
2013-01-05 16:22:00,35.2,28.7,30.18,WNW,296,5.0,6.0,77,0.00,,,0.02,0.00,VWS V14.01,2013-01-05 21:22:00,
2013-01-05 16:24:00,35.2,28.7,30.18,West,267,8.0,8.0,77,0.00,,,0.02,0.00,VWS V14.01,2013-01-05 21:24:00,
2013-01-05 16:25:00,35.2,28.7,30.18,West,281,5.0,8.0,77,0.00,,,0.02,0.00,VWS V14.01,2013-01-05 21:25:00,
2013-01-05 16:27:00,35.2,29.0,30.18,West,280,4.0,4.0,78,0.00,,,0.02,0.00,VWS V14.01,2013-01-05 21:27:00,
2013-01-05 16:29:00,35.1,28.9,30.18,WSW,239,6.0,7.0,78,0.00,,,0.02,0.00,VWS V14.01,2013-01-05 21:29:00,
2013-01-05 16:30:00,35.1,28.9,30.18,WSW,248,5.0,7.0,78,0.00,,,0.02,0.00,VWS V14.01,2013-01-05 21:30:00,
2013-01-05 16:32:00,35.1,28.9,30.18,WNW,289,8.0,8.0,78,0.00,,,0.02,0.00,VWS V14.01,2013-01-05 21:32:00,
2013-01-05 16:34:00,35.1,28.9,30.18,West,273,5.0,8.0,78,0.00,,,0.02,0.00,VWS V14.01,2013-01-05 21:34:00,
2013-01-05 16:35:00,35.1,28.9,30.18,WNW,286,6.0,8.0,78,0.00,,,0.02,0.00,VWS V14.01,2013-01-05 21:35:00,
2013-01-05 16:37:00,35.1,28.9,30.18,WNW,294,5.0,5.0,78,0.00,,,0.02,0.00,VWS V14.01,2013-01-05 21:37:00,
2013-01-05 16:39:00,35.1,28.9,30.18,WNW,288,6.0,6.0,78,0.00,,,0.02,0.00,VWS V14.01,2013-01-05 21:39:00,
2013-01-05 16:40:00,35.2,29.0,30.18,WNW,290,8.0,8.0,78,0.00,,,0.02,0.00,VWS V14.01,2013-01-05 21:40:00,
2013-01-05 16:43:00,35.2,29.0,30.19,NW,313,4.0,5.0,78,0.00,,,0.02,0.00,VWS V14.01,2013-01-05 21:43:00,
2013-01-05 16:44:00,35.2,29.0,30.19,NW,313,3.0,5.0,78,0.00,,,0.02,0.00,VWS V14.01,2013-01-05 21:44:00,
2013-01-05 16:45:00,35.2,29.0,30.19,NW,313,2.0,5.0,78,0.00,,,0.02,0.00,VWS V14.01,2013-01-05 21:45:00,
2013-01-05 16:48:00,35.3,29.1,30.19,NW,316,7.0,7.0,78,0.00,,,0.02,0.00,VWS V14.01,2013-01-05 21:48:00,
2013-01-05 16:49:00,35.3,29.5,30.19,WNW,292,7.0,8.0,79,0.00,,,0.02,0.00,VWS V14.01,2013-01-05 21:49:00,
2013-01-05 16:50:00,35.3,29.5,30.19,NW,306,6.0,8.0,79,0.00,,,0.02,0.00,VWS V14.01,2013-01-05 21:50:00,
2013-01-05 16:53:00,35.2,29.7,30.19,WNW,297,10.0,10.0,80,0.00,,,0.02,0.00,VWS V14.01,2013-01-05 21:53:00,
2013-01-05 16:54:00,35.1,30.2,30.19,NW,316,6.0,9.0,82,0.00,,,0.02,0.00,VWS V14.01,2013-01-05 21:54:00,
2013-01-05 16:55:00,35.1,30.2,30.19,NW,316,5.0,9.0,82,0.00,,,0.02,0.00,VWS V14.01,2013-01-05 21:55:00,
2013-01-05 16:58:00,34.9,30.3,30.20,NW,313,4.0,5.0,83,0.00,,,0.02,0.00,VWS V14.01,2013-01-05 21:58:00,
2013-01-05 16:59:00,34.8,30.5,30.20,NNW,333,10.0,10.0,84,0.00,,,0.02,0.00,VWS V14.01,2013-01-05 21:59:00,
2013-01-05 17:00:00,34.8,30.5,30.20,WNW,294,8.0,10.0,84,0.00,,,0.02,0.00,VWS V14.01,2013-01-05 22:00:00,
2013-01-05 17:03:00,34.5,30.5,30.19,WNW,300,5.0,5.0,85,0.00,,,0.02,0.00,VWS V14.01,2013-01-05 22:03:00,
2013-01-05 17:04:00,34.4,30.6,30.19,NW,312,4.0,7.0,86,0.00,,,0.02,0.00,VWS V14.01,2013-01-05 22:04:00,
2013-01-05 17:05:00,34.4,30.6,30.19,WNW,300,5.0,7.0,86,0.00,,,0.02,0.00,VWS V14.01,2013-01-05 22:05:00,
2013-01-05 17:08:00,34.1,30.6,30.19,WNW,292,7.0,7.0,87,0.00,,,0.02,0.00,VWS V14.01,2013-01-05 22:08:00,
2013-01-05 17:09:00,34.0,30.8,30.19,WNW,294,5.0,7.0,88,0.00,,,0.02,0.00,VWS V14.01,2013-01-05 22:09:00,
2013-01-05 17:10:00,33.9,30.7,30.19,WNW,291,6.0,6.0,88,0.00,,,0.02,0.00,VWS V14.01,2013-01-05 22:10:00,
2013-01-05 17:13:00,33.7,30.8,30.19,WNW,288,7.0,7.0,89,0.00,,,0.02,0.00,VWS V14.01,2013-01-05 22:13:00,
2013-01-05 17:14:00,33.5,30.9,30.19,WNW,290,5.0,9.0,90,0.00,,,0.02,0.00,VWS V14.01,2013-01-05 22:14:00,
2013-01-05 17:15:00,33.5,30.9,30.19,NW,304,8.0,8.0,90,0.00,,,0.02,0.00,VWS V14.01,2013-01-05 22:15:00,
2013-01-05 17:18:00,33.3,31.0,30.19,West,279,4.0,5.0,91,0.00,,,0.02,0.00,VWS V14.01,2013-01-05 22:18:00,
2013-01-05 17:19:00,33.2,30.9,30.19,WNW,282,2.0,6.0,91,0.00,,,0.02,0.00,VWS V14.01,2013-01-05 22:19:00,
2013-01-05 17:20:00,33.2,30.9,30.19,West,271,7.0,8.0,91,0.00,,,0.02,0.00,VWS V14.01,2013-01-05 22:20:00,
2013-01-05 17:23:00,33.0,30.9,30.19,WNW,286,4.0,6.0,92,0.00,,,0.02,0.00,VWS V14.01,2013-01-05 22:23:00,
2013-01-05 17:24:00,33.0,30.9,30.19,West,278,5.0,5.0,92,0.00,,,0.02,0.00,VWS V14.01,2013-01-05 22:24:00,
2013-01-05 17:25:00,33.0,30.9,30.19,WNW,296,8.0,8.0,92,0.00,,,0.02,0.00,VWS V14.01,2013-01-05 22:25:00,
2013-01-05 17:26:00,33.0,30.9,30.19,WNW,289,2.0,8.0,92,0.00,,,0.02,0.00,VWS V14.01,2013-01-05 22:26:00,
2013-01-05 17:28:00,32.9,31.1,30.19,WNW,287,6.0,7.0,93,0.00,,,0.02,0.00,VWS V14.01,2013-01-05 22:28:00,
2013-01-05 17:29:00,32.9,31.1,30.19,NW,309,6.0,8.0,93,0.00,,,0.02,0.00,VWS V14.01,2013-01-05 22:29:00,
2013-01-05 17:30:00,32.9,31.1,30.19,NW,317,5.0,7.0,93,0.00,,,0.02,0.00,VWS V14.01,2013-01-05 22:30:00,
2013-01-05 17:31:00,32.9,31.1,30.19,West,279,8.0,9.0,93,0.00,,,0.02,0.00,VWS V14.01,2013-01-05 22:31:00,
2013-01-05 17:33:00,32.8,31.0,30.19,WNW,288,5.0,9.0,93,0.00,,,0.02,0.00,VWS V14.01,2013-01-05 22:33:00,
2013-01-05 17:34:00,32.8,31.0,30.19,West,280,4.0,7.0,93,0.00,,,0.02,0.00,VWS V14.01,2013-01-05 22:34:00,
2013-01-05 17:35:00,32.8,31.0,30.18,WNW,296,9.0,9.0,93,0.00,,,0.02,0.00,VWS V14.01,2013-01-05 22:35:00,
2013-01-05 17:36:00,32.8,31.0,30.18,WNW,299,5.0,9.0,93,0.00,,,0.02,0.00,VWS V14.01,2013-01-05 22:36:00,
2013-01-05 17:38:00,32.8,31.0,30.18,WNW,298,8.0,9.0,93,0.00,,,0.02,0.00,VWS V14.01,2013-01-05 22:38:00,
2013-01-05 17:40:00,32.8,31.0,30.18,West,279,7.0,11.0,93,0.00,,,0.02,0.00,VWS V14.01,2013-01-05 22:40:00,
2013-01-05 17:41:00,32.7,30.9,30.18,WNW,290,4.0,10.0,93,0.00,,,0.02,0.00,VWS V14.01,2013-01-05 22:41:00,
2013-01-05 17:43:00,32.7,31.2,30.18,West,267,7.0,7.0,94,0.00,,,0.02,0.00,VWS V14.01,2013-01-05 22:43:00,
2013-01-05 17:45:00,32.7,31.2,30.18,WNW,295,10.0,10.0,94,0.00,,,0.02,0.00,VWS V14.01,2013-01-05 22:45:00,
2013-01-05 17:46:00,32.7,31.2,30.18,WNW,298,4.0,8.0,94,0.00,,,0.02,0.00,VWS V14.01,2013-01-05 22:46:00,
2013-01-05 17:48:00,32.6,31.1,30.18,WNW,302,6.0,6.0,94,0.00,,,0.02,0.00,VWS V14.01,2013-01-05 22:48:00,
2013-01-05 17:50:00,32.6,31.1,30.18,West,277,7.0,7.0,94,0.00,,,0.02,0.00,VWS V14.01,2013-01-05 22:50:00,
2013-01-05 17:51:00,32.6,31.1,30.18,NW,309,7.0,8.0,94,0.00,,,0.02,0.00,VWS V14.01,2013-01-05 22:51:00,
2013-01-05 17:53:00,32.5,31.0,30.18,WNW,293,2.0,5.0,94,0.00,,,0.02,0.00,VWS V14.01,2013-01-05 22:53:00,
2013-01-05 17:55:00,32.6,31.1,30.18,West,276,5.0,10.0,94,0.00,,,0.02,0.00,VWS V14.01,2013-01-05 22:55:00,
2013-01-05 17:56:00,32.5,31.0,30.18,WNW,294,4.0,9.0,94,0.00,,,0.02,0.00,VWS V14.01,2013-01-05 22:56:00,
2013-01-05 17:59:00,32.5,31.0,30.18,WNW,292,5.0,7.0,94,0.00,,,0.02,0.00,VWS V14.01,2013-01-05 22:59:00,
2013-01-05 18:00:00,32.5,31.0,30.18,WNW,283,4.0,9.0,94,0.00,,,0.02,0.00,VWS V14.01,2013-01-05 23:00:00,
2013-01-05 18:01:00,32.5,31.0,30.18,WNW,288,6.0,7.0,94,0.00,,,0.02,0.00,VWS V14.01,2013-01-05 23:01:00,
2013-01-05 18:04:00,32.5,31.0,30.18,WNW,297,2.0,5.0,94,0.00,,,0.02,0.00,VWS V14.01,2013-01-05 23:04:00,
2013-01-05 18:05:00,32.5,31.0,30.18,West,281,6.0,6.0,94,0.00,,,0.02,0.00,VWS V14.01,2013-01-05 23:05:00,
2013-01-05 18:06:00,32.5,31.0,30.18,West,273,2.0,7.0,94,0.00,,,0.02,0.00,VWS V14.01,2013-01-05 23:06:00,
2013-01-05 18:09:00,32.5,31.2,30.18,WNW,283,5.0,10.0,95,0.00,,,0.02,0.00,VWS V14.01,2013-01-05 23:09:00,
2013-01-05 18:10:00,32.5,31.2,30.18,West,266,4.0,5.0,95,0.00,,,0.02,0.00,VWS V14.01,2013-01-05 23:10:00,
2013-01-05 18:11:00,32.5,31.2,30.18,West,272,4.0,5.0,95,0.00,,,0.02,0.00,VWS V14.01,2013-01-05 23:11:00,
2013-01-05 18:14:00,32.5,31.2,30.18,West,281,4.0,5.0,95,0.00,,,0.02,0.00,VWS V14.01,2013-01-05 23:14:00,
2013-01-05 18:15:00,32.6,31.3,30.18,WNW,292,6.0,6.0,95,0.00,,,0.02,0.00,VWS V14.01,2013-01-05 23:15:00,
2013-01-05 18:16:00,32.5,31.0,30.18,WNW,296,5.0,6.0,94,0.00,,,0.02,0.00,VWS V14.01,2013-01-05 23:16:00,
2013-01-05 18:19:00,32.6,31.1,30.18,WNW,282,5.0,8.0,94,0.00,,,0.02,0.00,VWS V14.01,2013-01-05 23:19:00,
2013-01-05 18:20:00,32.6,31.1,30.17,WNW,285,5.0,5.0,94,0.00,,,0.02,0.00,VWS V14.01,2013-01-05 23:20:00,
2013-01-05 18:21:00,32.6,31.1,30.17,WNW,282,7.0,7.0,94,0.00,,,0.02,0.00,VWS V14.01,2013-01-05 23:21:00,
2013-01-05 18:24:00,32.6,31.1,30.17,West,275,7.0,7.0,94,0.00,,,0.02,0.00,VWS V14.01,2013-01-05 23:24:00,
2013-01-05 18:25:00,32.6,31.1,30.17,West,274,6.0,6.0,94,0.00,,,0.02,0.00,VWS V14.01,2013-01-05 23:25:00,
2013-01-05 18:26:00,32.6,31.1,30.17,WNW,284,7.0,9.0,94,0.00,,,0.02,0.00,VWS V14.01,2013-01-05 23:26:00,
2013-01-05 18:29:00,32.6,31.1,30.17,West,272,8.0,10.0,94,0.00,,,0.02,0.00,VWS V14.01,2013-01-05 23:29:00,
2013-01-05 18:30:00,32.6,31.1,30.17,WNW,284,6.0,7.0,94,0.00,,,0.02,0.00,VWS V14.01,2013-01-05 23:30:00,
2013-01-05 18:31:00,32.6,31.1,30.17,West,276,5.0,7.0,94,0.00,,,0.02,0.00,VWS V14.01,2013-01-05 23:31:00,
2013-01-05 18:34:00,32.6,31.1,30.17,West,261,7.0,7.0,94,0.00,,,0.02,0.00,VWS V14.01,2013-01-05 23:34:00,
2013-01-05 18:35:00,32.6,31.1,30.17,West,261,10.0,12.0,94,0.00,,,0.02,0.00,VWS V14.01,2013-01-05 23:35:00,
2013-01-05 18:36:00,32.6,31.1,30.17,West,277,4.0,12.0,94,0.00,,,0.02,0.00,VWS V14.01,2013-01-05 23:36:00,
2013-01-05 18:39:00,32.6,31.1,30.17,WNW,290,6.0,6.0,94,0.00,,,0.02,0.00,VWS V14.01,2013-01-05 23:39:00,
2013-01-05 18:40:00,32.6,31.1,30.17,West,267,4.0,8.0,94,0.00,,,0.02,0.00,VWS V14.01,2013-01-05 23:40:00,
2013-01-05 18:41:00,32.6,31.1,30.17,WSW,254,6.0,8.0,94,0.00,,,0.02,0.00,VWS V14.01,2013-01-05 23:41:00,
2013-01-05 18:44:00,32.6,31.1,30.16,West,271,5.0,5.0,94,0.00,,,0.02,0.00,VWS V14.01,2013-01-05 23:44:00,
2013-01-05 18:45:00,32.6,31.1,30.16,West,269,7.0,9.0,94,0.00,,,0.02,0.00,VWS V14.01,2013-01-05 23:45:00,
2013-01-05 18:46:00,32.6,31.1,30.16,SW,236,4.0,9.0,94,0.00,,,0.02,0.00,VWS V14.01,2013-01-05 23:46:00,
2013-01-05 18:49:00,32.7,31.2,30.15,West,264,0.0,4.0,94,0.00,,,0.02,0.00,VWS V14.01,2013-01-05 23:49:00,
2013-01-05 18:50:00,32.7,31.2,30.15,West,266,5.0,5.0,94,0.00,,,0.02,0.00,VWS V14.01,2013-01-05 23:50:00,
2013-01-05 18:51:00,32.7,31.2,30.15,WNW,282,6.0,7.0,94,0.00,,,0.02,0.00,VWS V14.01,2013-01-05 23:51:00,
2013-01-05 18:54:00,32.7,30.9,30.16,WSW,258,5.0,5.0,93,0.00,,,0.02,0.00,VWS V14.01,2013-01-05 23:54:00,
2013-01-05 18:55:00,32.7,30.9,30.15,WSW,252,2.0,4.0,93,0.00,,,0.02,0.00,VWS V14.01,2013-01-05 23:55:00,
2013-01-05 18:56:00,32.7,30.9,30.15,WNW,292,10.0,10.0,93,0.00,,,0.02,0.00,VWS V14.01,2013-01-05 23:56:00,
2013-01-05 18:59:00,32.7,30.9,30.15,WSW,252,6.0,7.0,93,0.00,,,0.02,0.00,VWS V14.01,2013-01-05 23:59:00,
2013-01-05 19:00:00,32.8,31.0,30.15,West,267,1.0,5.0,93,0.00,,,0.02,0.00,VWS V14.01,2013-01-06 00:00:00,
2013-01-05 19:01:00,32.8,31.0,30.15,West,277,4.0,5.0,93,0.00,,,0.02,0.00,VWS V14.01,2013-01-06 00:01:00,
2013-01-05 19:04:00,32.8,31.0,30.15,West,279,0.0,2.0,93,0.00,,,0.02,0.00,VWS V14.01,2013-01-06 00:04:00,
2013-01-05 19:05:00,32.8,31.0,30.15,West,275,3.0,6.0,93,0.00,,,0.02,0.00,VWS V14.01,2013-01-06 00:05:00,
2013-01-05 19:06:00,32.8,31.0,30.15,WNW,297,8.0,8.0,93,0.00,,,0.02,0.00,VWS V14.01,2013-01-06 00:06:00,
2013-01-05 19:09:00,32.8,31.0,30.15,WSW,250,5.0,7.0,93,0.00,,,0.02,0.00,VWS V14.01,2013-01-06 00:09:00,
2013-01-05 19:10:00,32.8,31.0,30.15,SW,234,5.0,6.0,93,0.00,,,0.02,0.00,VWS V14.01,2013-01-06 00:10:00,
2013-01-05 19:11:00,32.8,31.0,30.15,SW,231,6.0,6.0,93,0.00,,,0.02,0.00,VWS V14.01,2013-01-06 00:11:00,
2013-01-05 19:14:00,32.8,31.0,30.15,West,266,5.0,8.0,93,0.00,,,0.02,0.00,VWS V14.01,2013-01-06 00:14:00,
2013-01-05 19:15:00,32.8,31.0,30.15,West,261,2.0,5.0,93,0.00,,,0.02,0.00,VWS V14.01,2013-01-06 00:15:00,
2013-01-05 19:16:00,32.7,30.9,30.15,West,259,5.0,5.0,93,0.00,,,0.02,0.00,VWS V14.01,2013-01-06 00:16:00,
2013-01-05 19:19:00,32.8,31.0,30.15,WSW,246,8.0,12.0,93,0.00,,,0.02,0.00,VWS V14.01,2013-01-06 00:19:00,
2013-01-05 19:20:00,32.7,30.9,30.15,West,269,5.0,6.0,93,0.00,,,0.02,0.00,VWS V14.01,2013-01-06 00:20:00,
2013-01-05 19:21:00,32.8,31.0,30.15,West,269,4.0,6.0,93,0.00,,,0.02,0.00,VWS V14.01,2013-01-06 00:21:00,
2013-01-05 19:24:00,32.8,31.0,30.15,West,281,5.0,6.0,93,0.00,,,0.02,0.00,VWS V14.01,2013-01-06 00:24:00,
2013-01-05 19:25:00,32.8,31.0,30.15,West,259,5.0,5.0,93,0.00,,,0.02,0.00,VWS V14.01,2013-01-06 00:25:00,
2013-01-05 19:26:00,32.8,31.0,30.15,West,261,4.0,5.0,93,0.00,,,0.02,0.00,VWS V14.01,2013-01-06 00:26:00,
2013-01-05 19:29:00,32.7,30.9,30.15,West,277,9.0,10.0,93,0.00,,,0.02,0.00,VWS V14.01,2013-01-06 00:29:00,
2013-01-05 19:31:00,32.8,31.0,30.16,West,279,4.0,5.0,93,0.00,,,0.02,0.00,VWS V14.01,2013-01-06 00:31:00,
2013-01-05 19:34:00,32.8,31.0,30.16,West,275,5.0,7.0,93,0.00,,,0.02,0.00,VWS V14.01,2013-01-06 00:34:00,
2013-01-05 19:36:00,32.8,31.0,30.16,West,269,2.0,6.0,93,0.00,,,0.02,0.00,VWS V14.01,2013-01-06 00:36:00,
2013-01-05 19:39:00,32.9,31.1,30.15,WSW,244,11.0,11.0,93,0.00,,,0.02,0.00,VWS V14.01,2013-01-06 00:39:00,
2013-01-05 19:41:00,32.9,31.1,30.15,West,279,1.0,6.0,93,0.00,,,0.02,0.00,VWS V14.01,2013-01-06 00:41:00,
2013-01-05 19:44:00,32.9,31.1,30.15,West,270,6.0,6.0,93,0.00,,,0.02,0.00,VWS V14.01,2013-01-06 00:44:00,
2013-01-05 19:46:00,32.9,31.1,30.15,West,274,5.0,6.0,93,0.00,,,0.02,0.00,VWS V14.01,2013-01-06 00:46:00,
2013-01-05 19:49:00,32.9,31.1,30.15,WSW,242,5.0,6.0,93,0.00,,,0.02,0.00,VWS V14.01,2013-01-06 00:49:00,
2013-01-05 19:51:00,32.9,31.1,30.16,WNW,294,10.0,10.0,93,0.00,,,0.02,0.00,VWS V14.01,2013-01-06 00:51:00,
2013-01-05 19:54:00,32.9,31.1,30.16,WNW,284,2.0,4.0,93,0.00,,,0.02,0.00,VWS V14.01,2013-01-06 00:54:00,
2013-01-05 19:56:00,32.9,31.1,30.16,WNW,296,6.0,6.0,93,0.00,,,0.02,0.00,VWS V14.01,2013-01-06 00:56:00,
2013-01-05 19:59:00,33.0,31.5,30.15,WNW,283,8.0,8.0,94,0.00,,,0.02,0.00,VWS V14.01,2013-01-06 00:59:00,
2013-01-05 20:01:00,33.0,31.5,30.15,WNW,283,4.0,7.0,94,0.00,,,0.02,0.00,VWS V14.01,2013-01-06 01:01:00,
2013-01-05 20:04:00,33.0,31.5,30.15,WNW,302,10.0,15.0,94,0.00,,,0.02,0.00,VWS V14.01,2013-01-06 01:04:00,
2013-01-05 20:06:00,33.0,31.2,30.15,West,270,7.0,7.0,93,0.00,,,0.02,0.00,VWS V14.01,2013-01-06 01:06:00,
2013-01-05 20:09:00,33.0,31.2,30.15,West,279,5.0,10.0,93,0.00,,,0.02,0.00,VWS V14.01,2013-01-06 01:09:00,
2013-01-05 20:11:00,32.9,31.1,30.15,West,265,7.0,8.0,93,0.00,,,0.02,0.00,VWS V14.01,2013-01-06 01:11:00,
2013-01-05 20:14:00,32.9,31.1,30.15,WNW,296,7.0,7.0,93,0.00,,,0.02,0.00,VWS V14.01,2013-01-06 01:14:00,
2013-01-05 20:16:00,32.9,31.1,30.15,West,267,6.0,8.0,93,0.00,,,0.02,0.00,VWS V14.01,2013-01-06 01:16:00,
2013-01-05 20:19:00,32.9,31.1,30.15,WNW,288,4.0,6.0,93,0.00,,,0.02,0.00,VWS V14.01,2013-01-06 01:19:00,
2013-01-05 20:21:00,32.9,31.1,30.15,WNW,286,4.0,9.0,93,0.00,,,0.02,0.00,VWS V14.01,2013-01-06 01:21:00,
2013-01-05 20:22:00,32.9,31.1,30.16,WNW,298,5.0,9.0,93,0.00,,,0.02,0.00,VWS V14.01,2013-01-06 01:22:00,
2013-01-05 20:24:00,32.9,31.1,30.15,WNW,292,3.0,5.0,93,0.00,,,0.02,0.00,VWS V14.01,2013-01-06 01:24:00,
2013-01-05 20:26:00,33.0,31.2,30.15,West,279,4.0,6.0,93,0.00,,,0.02,0.00,VWS V14.01,2013-01-06 01:26:00,
2013-01-05 20:27:00,32.9,31.1,30.16,West,259,4.0,5.0,93,0.00,,,0.02,0.00,VWS V14.01,2013-01-06 01:27:00,
2013-01-05 20:29:00,33.0,31.2,30.15,West,271,5.0,6.0,93,0.00,,,0.02,0.00,VWS V14.01,2013-01-06 01:29:00,
2013-01-05 20:31:00,33.0,31.2,30.15,WNW,290,6.0,6.0,93,0.00,,,0.02,0.00,VWS V14.01,2013-01-06 01:31:00,
2013-01-05 20:32:00,33.0,31.2,30.15,West,273,9.0,9.0,93,0.00,,,0.02,0.00,VWS V14.01,2013-01-06 01:32:00,
2013-01-05 20:35:00,33.0,31.2,30.15,West,265,4.0,6.0,93,0.00,,,0.02,0.00,VWS V14.01,2013-01-06 01:35:00,
2013-01-05 20:36:00,33.0,31.2,30.15,WSW,240,7.0,7.0,93,0.00,,,0.02,0.00,VWS V14.01,2013-01-06 01:36:00,
2013-01-05 20:37:00,33.0,31.2,30.15,WSW,240,7.0,7.0,93,0.00,,,0.02,0.00,VWS V14.01,2013-01-06 01:37:00,
2013-01-05 20:40:00,33.0,31.2,30.15,WNW,286,2.0,8.0,93,0.00,,,0.02,0.00,VWS V14.01,2013-01-06 01:40:00,
2013-01-05 20:41:00,33.0,31.2,30.15,WNW,287,8.0,9.0,93,0.00,,,0.02,0.00,VWS V14.01,2013-01-06 01:41:00,
2013-01-05 20:42:00,33.0,31.2,30.15,WNW,293,8.0,11.0,93,0.00,,,0.02,0.00,VWS V14.01,2013-01-06 01:42:00,
2013-01-05 20:45:00,33.1,31.3,30.15,West,275,7.0,8.0,93,0.00,,,0.02,0.00,VWS V14.01,2013-01-06 01:45:00,
2013-01-05 20:46:00,33.1,31.3,30.14,WSW,237,8.0,8.0,93,0.00,,,0.02,0.00,VWS V14.01,2013-01-06 01:46:00,
2013-01-05 20:47:00,33.1,31.3,30.14,WNW,292,5.0,10.0,93,0.00,,,0.02,0.00,VWS V14.01,2013-01-06 01:47:00,
2013-01-05 20:50:00,33.2,31.4,30.15,WSW,257,8.0,11.0,93,0.00,,,0.02,0.00,VWS V14.01,2013-01-06 01:50:00,
2013-01-05 20:51:00,33.2,31.4,30.15,West,271,6.0,6.0,93,0.00,,,0.02,0.00,VWS V14.01,2013-01-06 01:51:00,
2013-01-05 20:52:00,33.2,31.4,30.15,West,265,7.0,7.0,93,0.00,,,0.02,0.00,VWS V14.01,2013-01-06 01:52:00,
2013-01-05 20:55:00,33.2,31.4,30.15,West,261,6.0,7.0,93,0.00,,,0.02,0.00,VWS V14.01,2013-01-06 01:55:00,
2013-01-05 20:56:00,33.2,31.4,30.15,WNW,282,5.0,8.0,93,0.00,,,0.02,0.00,VWS V14.01,2013-01-06 01:56:00,
2013-01-05 20:57:00,33.2,31.4,30.15,West,279,7.0,8.0,93,0.00,,,0.02,0.00,VWS V14.01,2013-01-06 01:57:00,
2013-01-05 21:00:00,33.3,31.5,30.14,West,259,9.0,9.0,93,0.00,,,0.02,0.00,VWS V14.01,2013-01-06 02:00:00,
2013-01-05 21:01:00,33.3,31.5,30.14,West,281,5.0,8.0,93,0.00,,,0.02,0.00,VWS V14.01,2013-01-06 02:01:00,
2013-01-05 21:02:00,33.3,31.5,30.14,WSW,251,5.0,10.0,93,0.00,,,0.02,0.00,VWS V14.01,2013-01-06 02:02:00,
2013-01-05 21:05:00,33.3,31.5,30.14,West,271,4.0,5.0,93,0.00,,,0.02,0.00,VWS V14.01,2013-01-06 02:05:00,
2013-01-05 21:06:00,33.3,31.5,30.14,West,270,6.0,7.0,93,0.00,,,0.02,0.00,VWS V14.01,2013-01-06 02:06:00,
2013-01-05 21:07:00,33.3,31.5,30.14,WSW,246,5.0,7.0,93,0.00,,,0.02,0.00,VWS V14.01,2013-01-06 02:07:00,
2013-01-05 21:10:00,33.3,31.5,30.14,West,259,4.0,4.0,93,0.00,,,0.02,0.00,VWS V14.01,2013-01-06 02:10:00,
2013-01-05 21:11:00,33.3,31.5,30.14,WNW,298,6.0,6.0,93,0.00,,,0.02,0.00,VWS V14.01,2013-01-06 02:11:00,
2013-01-05 21:12:00,33.3,31.5,30.14,West,273,4.0,11.0,93,0.00,,,0.02,0.00,VWS V14.01,2013-01-06 02:12:00,
2013-01-05 21:15:00,33.3,31.5,30.13,West,281,6.0,8.0,93,0.00,,,0.02,0.00,VWS V14.01,2013-01-06 02:15:00,
2013-01-05 21:16:00,33.3,31.5,30.13,WNW,295,7.0,7.0,93,0.00,,,0.02,0.00,VWS V14.01,2013-01-06 02:16:00,
2013-01-05 21:17:00,33.3,31.5,30.13,WNW,293,2.0,7.0,93,0.00,,,0.02,0.00,VWS V14.01,2013-01-06 02:17:00,
2013-01-05 21:18:00,33.3,31.5,30.13,SW,221,4.0,5.0,93,0.00,,,0.02,0.00,VWS V14.01,2013-01-06 02:18:00,
2013-01-05 21:20:00,33.3,31.5,30.13,West,272,4.0,4.0,93,0.00,,,0.02,0.00,VWS V14.01,2013-01-06 02:20:00,
2013-01-05 21:21:00,33.3,31.5,30.13,WNW,302,7.0,10.0,93,0.00,,,0.02,0.00,VWS V14.01,2013-01-06 02:21:00,
2013-01-05 21:22:00,33.4,31.6,30.13,West,261,8.0,10.0,93,0.00,,,0.02,0.00,VWS V14.01,2013-01-06 02:22:00,
2013-01-05 21:23:00,33.4,31.6,30.13,WNW,288,5.0,7.0,93,0.00,,,0.02,0.00,VWS V14.01,2013-01-06 02:23:00,
2013-01-05 21:25:00,33.4,31.6,30.13,WNW,292,7.0,7.0,93,0.00,,,0.02,0.00,VWS V14.01,2013-01-06 02:25:00,
2013-01-05 21:27:00,33.5,31.7,30.13,West,259,9.0,11.0,93,0.00,,,0.02,0.00,VWS V14.01,2013-01-06 02:27:00,
2013-01-05 21:28:00,33.5,31.7,30.13,West,278,10.0,10.0,93,0.00,,,0.02,0.00,VWS V14.01,2013-01-06 02:28:00,
2013-01-05 21:30:00,33.5,31.7,30.13,West,281,6.0,8.0,93,0.00,,,0.02,0.00,VWS V14.01,2013-01-06 02:30:00,
2013-01-05 21:32:00,33.5,31.7,30.13,WNW,285,6.0,11.0,93,0.00,,,0.02,0.00,VWS V14.01,2013-01-06 02:32:00,
2013-01-05 21:33:00,33.5,31.7,30.13,West,264,8.0,13.0,93,0.00,,,0.02,0.00,VWS V14.01,2013-01-06 02:33:00,
2013-01-05 21:35:00,33.5,31.7,30.13,WSW,253,8.0,13.0,93,0.00,,,0.02,0.00,VWS V14.01,2013-01-06 02:35:00,
2013-01-05 21:37:00,33.5,31.7,30.13,West,273,6.0,8.0,93,0.00,,,0.02,0.00,VWS V14.01,2013-01-06 02:37:00,
2013-01-05 21:38:00,33.5,31.4,30.13,WSW,246,7.0,7.0,92,0.00,,,0.02,0.00,VWS V14.01,2013-01-06 02:38:00,
2013-01-05 21:40:00,33.6,31.5,30.13,WNW,294,4.0,4.0,92,0.00,,,0.02,0.00,VWS V14.01,2013-01-06 02:40:00,
2013-01-05 21:42:00,33.6,31.5,30.13,West,271,9.0,14.0,92,0.00,,,0.02,0.00,VWS V14.01,2013-01-06 02:42:00,
2013-01-05 21:43:00,33.6,31.5,30.13,WNW,287,6.0,8.0,92,0.00,,,0.02,0.00,VWS V14.01,2013-01-06 02:43:00,
2013-01-05 21:45:00,33.7,31.6,30.13,WNW,293,6.0,8.0,92,0.00,,,0.02,0.00,VWS V14.01,2013-01-06 02:45:00,
2013-01-05 21:47:00,33.7,31.6,30.13,WNW,296,8.0,8.0,92,0.00,,,0.02,0.00,VWS V14.01,2013-01-06 02:47:00,
2013-01-05 21:48:00,33.7,31.6,30.13,West,265,6.0,10.0,92,0.00,,,0.02,0.00,VWS V14.01,2013-01-06 02:48:00,
2013-01-05 21:50:00,33.7,31.6,30.13,WNW,284,13.0,13.0,92,0.00,,,0.02,0.00,VWS V14.01,2013-01-06 02:50:00,
2013-01-05 21:52:00,33.8,31.7,30.13,WNW,291,8.0,8.0,92,0.00,,,0.02,0.00,VWS V14.01,2013-01-06 02:52:00,
2013-01-05 21:53:00,33.8,31.7,30.13,WNW,290,7.0,11.0,92,0.00,,,0.02,0.00,VWS V14.01,2013-01-06 02:53:00,
2013-01-05 21:56:00,33.8,31.7,30.13,West,263,11.0,12.0,92,0.00,,,0.02,0.00,VWS V14.01,2013-01-06 02:56:00,
2013-01-05 21:57:00,33.9,31.6,30.13,NW,308,10.0,13.0,91,0.00,,,0.02,0.00,VWS V14.01,2013-01-06 02:57:00,
2013-01-05 21:58:00,33.9,31.6,30.13,WSW,255,13.0,20.0,91,0.00,,,0.02,0.00,VWS V14.01,2013-01-06 02:58:00,
2013-01-05 22:01:00,34.0,31.6,30.13,West,277,6.0,12.0,91,0.00,,,0.02,0.00,VWS V14.01,2013-01-06 03:01:00,
2013-01-05 22:02:00,34.0,31.6,30.13,WSW,253,9.0,9.0,91,0.00,,,0.02,0.00,VWS V14.01,2013-01-06 03:02:00,
2013-01-05 22:03:00,34.0,31.6,30.13,WNW,284,6.0,16.0,91,0.00,,,0.02,0.00,VWS V14.01,2013-01-06 03:03:00,
2013-01-05 22:06:00,33.9,31.6,30.13,West,260,13.0,13.0,91,0.00,,,0.02,0.00,VWS V14.01,2013-01-06 03:06:00,
2013-01-05 22:07:00,34.0,31.6,30.13,West,270,6.0,11.0,91,0.00,,,0.02,0.00,VWS V14.01,2013-01-06 03:07:00,
2013-01-05 22:08:00,34.0,31.6,30.13,WNW,284,8.0,11.0,91,0.00,,,0.02,0.00,VWS V14.01,2013-01-06 03:08:00,
2013-01-05 22:11:00,33.9,31.6,30.13,West,277,7.0,11.0,91,0.00,,,0.02,0.00,VWS V14.01,2013-01-06 03:11:00,
2013-01-05 22:12:00,33.9,31.6,30.13,WNW,284,5.0,5.0,91,0.00,,,0.02,0.00,VWS V14.01,2013-01-06 03:12:00,
2013-01-05 22:13:00,33.9,31.6,30.13,West,270,4.0,7.0,91,0.00,,,0.02,0.00,VWS V14.01,2013-01-06 03:13:00,
2013-01-05 22:16:00,33.9,31.6,30.12,West,267,9.0,9.0,91,0.00,,,0.02,0.00,VWS V14.01,2013-01-06 03:16:00,
2013-01-05 22:17:00,33.9,31.6,30.12,West,272,9.0,11.0,91,0.00,,,0.02,0.00,VWS V14.01,2013-01-06 03:17:00,
2013-01-05 22:18:00,33.9,31.6,30.13,West,277,4.0,11.0,91,0.00,,,0.02,0.00,VWS V14.01,2013-01-06 03:18:00,
2013-01-05 22:21:00,33.9,31.6,30.13,West,261,7.0,9.0,91,0.00,,,0.02,0.00,VWS V14.01,2013-01-06 03:21:00,
2013-01-05 22:22:00,33.9,31.6,30.13,WNW,286,7.0,10.0,91,0.00,,,0.02,0.00,VWS V14.01,2013-01-06 03:22:00,
2013-01-05 22:23:00,33.9,31.6,30.13,WNW,288,8.0,10.0,91,0.00,,,0.02,0.00,VWS V14.01,2013-01-06 03:23:00,
2013-01-05 22:26:00,33.9,31.6,30.13,WNW,286,6.0,11.0,91,0.00,,,0.02,0.00,VWS V14.01,2013-01-06 03:26:00,
2013-01-05 22:27:00,33.9,31.6,30.13,WNW,292,8.0,8.0,91,0.00,,,0.02,0.00,VWS V14.01,2013-01-06 03:27:00,
2013-01-05 22:28:00,33.9,31.6,30.13,West,265,6.0,10.0,91,0.00,,,0.02,0.00,VWS V14.01,2013-01-06 03:28:00,
2013-01-05 22:31:00,33.9,31.6,30.13,West,267,7.0,8.0,91,0.00,,,0.02,0.00,VWS V14.01,2013-01-06 03:31:00,
2013-01-05 22:32:00,33.9,31.6,30.13,WNW,289,3.0,7.0,91,0.00,,,0.02,0.00,VWS V14.01,2013-01-06 03:32:00,
2013-01-05 22:33:00,33.9,31.6,30.12,WNW,282,11.0,11.0,91,0.00,,,0.02,0.00,VWS V14.01,2013-01-06 03:33:00,
2013-01-05 22:36:00,33.9,31.6,30.12,West,278,4.0,8.0,91,0.00,,,0.02,0.00,VWS V14.01,2013-01-06 03:36:00,
2013-01-05 22:37:00,33.9,31.6,30.12,WNW,291,7.0,10.0,91,0.00,,,0.02,0.00,VWS V14.01,2013-01-06 03:37:00,
2013-01-05 22:38:00,33.9,31.6,30.12,West,264,7.0,10.0,91,0.00,,,0.02,0.00,VWS V14.01,2013-01-06 03:38:00,
2013-01-05 22:41:00,33.9,31.6,30.12,WNW,284,10.0,12.0,91,0.00,,,0.02,0.00,VWS V14.01,2013-01-06 03:41:00,
2013-01-05 22:42:00,33.9,31.6,30.11,WSW,257,7.0,8.0,91,0.00,,,0.02,0.00,VWS V14.01,2013-01-06 03:42:00,
2013-01-05 22:43:00,33.9,31.6,30.11,West,265,8.0,11.0,91,0.00,,,0.02,0.00,VWS V14.01,2013-01-06 03:43:00,
2013-01-05 22:46:00,33.9,31.6,30.11,WNW,288,8.0,13.0,91,0.00,,,0.02,0.00,VWS V14.01,2013-01-06 03:46:00,
2013-01-05 22:47:00,33.9,31.3,30.11,WNW,286,7.0,9.0,90,0.00,,,0.02,0.00,VWS V14.01,2013-01-06 03:47:00,
2013-01-05 22:48:00,33.9,31.3,30.11,West,273,6.0,8.0,90,0.00,,,0.02,0.00,VWS V14.01,2013-01-06 03:48:00,
2013-01-05 22:51:00,33.8,31.2,30.11,West,275,7.0,11.0,90,0.00,,,0.02,0.00,VWS V14.01,2013-01-06 03:51:00,
2013-01-05 22:52:00,33.8,31.2,30.11,West,271,7.0,11.0,90,0.00,,,0.02,0.00,VWS V14.01,2013-01-06 03:52:00,
2013-01-05 22:53:00,33.8,31.2,30.11,WNW,288,9.0,12.0,90,0.00,,,0.02,0.00,VWS V14.01,2013-01-06 03:53:00,
2013-01-05 22:56:00,33.8,31.2,30.11,West,261,9.0,9.0,90,0.00,,,0.02,0.00,VWS V14.01,2013-01-06 03:56:00,
2013-01-05 22:57:00,33.8,31.2,30.11,WNW,302,6.0,11.0,90,0.00,,,0.02,0.00,VWS V14.01,2013-01-06 03:57:00,
2013-01-05 22:58:00,33.8,31.2,30.11,WNW,300,3.0,5.0,90,0.00,,,0.02,0.00,VWS V14.01,2013-01-06 03:58:00,
2013-01-05 23:01:00,33.8,31.2,30.11,West,275,8.0,9.0,90,0.00,,,0.02,0.00,VWS V14.01,2013-01-06 04:01:00,
2013-01-05 23:03:00,33.8,31.2,30.11,NW,316,7.0,9.0,90,0.00,,,0.02,0.00,VWS V14.01,2013-01-06 04:03:00,
2013-01-05 23:06:00,33.8,31.2,30.11,WSW,249,4.0,10.0,90,0.00,,,0.02,0.00,VWS V14.01,2013-01-06 04:06:00,
2013-01-05 23:08:00,33.8,31.5,30.11,West,272,9.0,9.0,91,0.00,,,0.02,0.00,VWS V14.01,2013-01-06 04:08:00,
2013-01-05 23:11:00,33.7,31.4,30.11,NW,319,6.0,8.0,91,0.00,,,0.02,0.00,VWS V14.01,2013-01-06 04:11:00,
2013-01-05 23:13:00,33.7,31.4,30.11,West,267,5.0,12.0,91,0.00,,,0.02,0.00,VWS V14.01,2013-01-06 04:13:00,
2013-01-05 23:16:00,33.7,31.1,30.11,WNW,289,5.0,9.0,90,0.00,,,0.02,0.00,VWS V14.01,2013-01-06 04:16:00,
2013-01-05 23:18:00,33.7,31.1,30.11,WSW,254,5.0,9.0,90,0.00,,,0.02,0.00,VWS V14.01,2013-01-06 04:18:00,
2013-01-05 23:19:00,33.7,31.1,30.11,West,276,7.0,12.0,90,0.00,,,0.02,0.00,VWS V14.01,2013-01-06 04:19:00,
2013-01-05 23:21:00,33.7,31.1,30.11,WNW,283,8.0,11.0,90,0.00,,,0.02,0.00,VWS V14.01,2013-01-06 04:21:00,
2013-01-05 23:23:00,33.7,31.1,30.11,West,265,7.0,12.0,90,0.00,,,0.02,0.00,VWS V14.01,2013-01-06 04:23:00,
2013-01-05 23:24:00,33.7,31.1,30.11,WSW,239,12.0,13.0,90,0.00,,,0.02,0.00,VWS V14.01,2013-01-06 04:24:00,
2013-01-05 23:26:00,33.8,31.2,30.11,WNW,284,6.0,8.0,90,0.00,,,0.02,0.00,VWS V14.01,2013-01-06 04:26:00,
2013-01-05 23:28:00,33.8,31.2,30.11,WSW,253,7.0,8.0,90,0.00,,,0.02,0.00,VWS V14.01,2013-01-06 04:28:00,
2013-01-05 23:29:00,33.8,31.2,30.11,West,275,8.0,8.0,90,0.00,,,0.02,0.00,VWS V14.01,2013-01-06 04:29:00,
2013-01-05 23:31:00,33.8,31.2,30.10,West,263,10.0,13.0,90,0.00,,,0.02,0.00,VWS V14.01,2013-01-06 04:31:00,
2013-01-05 23:33:00,33.8,31.2,30.10,West,272,2.0,5.0,90,0.00,,,0.02,0.00,VWS V14.01,2013-01-06 04:33:00,
2013-01-05 23:34:00,33.8,31.2,30.10,West,274,5.0,6.0,90,0.00,,,0.02,0.00,VWS V14.01,2013-01-06 04:34:00,
2013-01-05 23:36:00,33.7,31.1,30.10,West,271,10.0,10.0,90,0.00,,,0.02,0.00,VWS V14.01,2013-01-06 04:36:00,
2013-01-05 23:38:00,33.7,31.1,30.10,West,271,6.0,9.0,90,0.00,,,0.02,0.00,VWS V14.01,2013-01-06 04:38:00,
2013-01-05 23:39:00,33.7,30.8,30.10,West,271,5.0,9.0,89,0.00,,,0.02,0.00,VWS V14.01,2013-01-06 04:39:00,
2013-01-05 23:41:00,33.8,31.2,30.10,WNW,297,9.0,9.0,90,0.00,,,0.02,0.00,VWS V14.01,2013-01-06 04:41:00,
2013-01-05 23:43:00,33.8,30.9,30.10,West,273,7.0,13.0,89,0.00,,,0.02,0.00,VWS V14.01,2013-01-06 04:43:00,
2013-01-05 23:44:00,33.8,30.9,30.10,WSW,252,6.0,10.0,89,0.00,,,0.02,0.00,VWS V14.01,2013-01-06 04:44:00,
2013-01-05 23:46:00,33.9,31.0,30.10,West,269,13.0,13.0,89,0.00,,,0.02,0.00,VWS V14.01,2013-01-06 04:46:00,
2013-01-05 23:48:00,33.9,31.0,30.10,West,280,5.0,10.0,89,0.00,,,0.02,0.00,VWS V14.01,2013-01-06 04:48:00,
2013-01-05 23:49:00,33.9,31.0,30.10,West,281,6.0,6.0,89,0.00,,,0.02,0.00,VWS V14.01,2013-01-06 04:49:00,
2013-01-05 23:51:00,33.9,31.0,30.10,West,266,5.0,6.0,89,0.00,,,0.02,0.00,VWS V14.01,2013-01-06 04:51:00,
2013-01-05 23:53:00,33.9,31.0,30.10,WNW,287,3.0,7.0,89,0.00,,,0.02,0.00,VWS V14.01,2013-01-06 04:53:00,
2013-01-05 23:54:00,33.9,31.0,30.10,West,265,7.0,7.0,89,0.00,,,0.02,0.00,VWS V14.01,2013-01-06 04:54:00,
2013-01-05 23:56:00,33.9,31.0,30.10,West,259,7.0,7.0,89,0.00,,,0.02,0.00,VWS V14.01,2013-01-06 04:56:00,
2013-01-05 23:58:00,33.9,31.0,30.10,WSW,252,6.0,6.0,89,0.00,,,0.02,0.00,VWS V14.01,2013-01-06 04:58:00,
2013-01-05 23:59:00,33.9,31.0,30.10,West,270,6.0,9.0,89,0.00,,,0.02,0.00,VWS V14.01,2013-01-06 04:59:00,